1000 dernières valeurs brutes
Date Temp Humidity Gust Pressure Rain
01 février 13:58 6.8°C 88% 6.9 km/h NE 1027.2 hPa 0 mm
01 février 13:57 6.7°C 88% 5.3 km/h NE 1027.2 hPa 0 mm
01 février 13:56 6.5°C 88% 7.4 km/h NE 1027.2 hPa 0 mm
01 février 13:55 6.3°C 88% 6.9 km/h NNE 1027.3 hPa 0 mm
01 février 13:54 6.2°C 88% 6.3 km/h NNE 1027.3 hPa 0 mm
01 février 13:53 6.2°C 88% 8.4 km/h NE 1027.3 hPa 0 mm
01 février 13:52 6.0°C 88% 6.9 km/h ENE 1027.3 hPa 0 mm
01 février 13:51 6.1°C 88% 4.8 km/h NNE 1027.3 hPa 0 mm
01 février 13:50 6.1°C 88% 7.9 km/h NE 1027.4 hPa 0 mm
01 février 13:48 6.0°C 88% 6.3 km/h ENE 1027.4 hPa 0 mm
01 février 13:47 6.0°C 88% 6.9 km/h NNE 1027.4 hPa 0 mm
01 février 13:46 6.1°C 89% 4.8 km/h NNE 1027.4 hPa 0 mm
01 février 13:45 5.9°C 89% 5.3 km/h NNE 1027.5 hPa 0 mm
01 février 13:44 5.8°C 88% 5.3 km/h NE 1027.5 hPa 0 mm
01 février 13:43 5.8°C 88% 4.2 km/h NNE 1027.5 hPa 0 mm
01 février 13:42 5.8°C 88% 4.8 km/h NNE 1027.5 hPa 0 mm
01 février 13:41 5.8°C 88% 5.8 km/h NNE 1027.5 hPa 0 mm
01 février 13:40 5.8°C 88% 7.4 km/h NNE 1027.6 hPa 0 mm
01 février 13:39 5.9°C 88% 6.3 km/h NE 1027.6 hPa 0 mm
01 février 13:38 6.0°C 89% 7.9 km/h NNE 1027.6 hPa 0 mm
01 février 13:37 6.0°C 89% 7.4 km/h NNE 1027.6 hPa 0 mm
01 février 13:36 6.0°C 89% 5.8 km/h NE 1027.6 hPa 0 mm
01 février 13:35 6.1°C 89% 4.8 km/h NNE 1027.8 hPa 0 mm
01 février 13:34 6.0°C 89% 6.3 km/h NNE 1027.8 hPa 0 mm
01 février 13:33 6.1°C 89% 5.8 km/h NE 1027.8 hPa 0 mm
01 février 13:32 6.1°C 89% 6.3 km/h ENE 1027.8 hPa 0 mm
01 février 13:31 6.1°C 89% 9.0 km/h NNE 1027.8 hPa 0 mm
01 février 13:30 6.1°C 89% 3.7 km/h NE 1027.9 hPa 0 mm
01 février 13:29 6.0°C 89% 5.8 km/h NNE 1027.9 hPa 0 mm
01 février 13:28 5.9°C 89% 5.3 km/h NNE 1027.9 hPa 0 mm
01 février 13:27 5.8°C 89% 6.9 km/h NE 1027.9 hPa 0 mm
01 février 13:26 5.9°C 89% 6.3 km/h N 1027.9 hPa 0 mm
01 février 13:25 5.9°C 89% 5.3 km/h ENE 1028.0 hPa 0 mm
01 février 13:24 5.9°C 89% 8.4 km/h NNE 1028.0 hPa 0 mm
01 février 13:23 6.0°C 89% 4.8 km/h NE 1028.0 hPa 0 mm
01 février 13:22 5.9°C 89% 5.3 km/h NNE 1028.0 hPa 0 mm
01 février 13:21 5.9°C 90% 4.8 km/h ENE 1028.0 hPa 0 mm
01 février 13:20 5.9°C 89% 3.7 km/h NE 1028.1 hPa 0 mm
01 février 13:19 6.0°C 90% 6.3 km/h ENE 1028.1 hPa 0 mm
01 février 13:18 5.9°C 90% 6.9 km/h E 1028.1 hPa 0 mm
01 février 13:17 5.7°C 89% 5.8 km/h NNE 1028.1 hPa 0 mm
01 février 13:16 5.8°C 90% 6.3 km/h NNE 1028.1 hPa 0 mm
01 février 13:15 5.9°C 90% 8.4 km/h NNE 1028.2 hPa 0 mm
01 février 13:14 5.9°C 90% 5.8 km/h NNE 1028.2 hPa 0 mm
01 février 13:13 5.8°C 90% 5.8 km/h N 1028.2 hPa 0 mm
01 février 13:12 5.7°C 90% 5.8 km/h NNE 1028.2 hPa 0 mm
01 février 13:11 5.6°C 90% 3.7 km/h NE 1028.2 hPa 0 mm
01 février 13:10 5.6°C 90% 4.2 km/h NE 1028.3 hPa 0 mm
01 février 13:09 5.5°C 90% 5.8 km/h NNE 1028.3 hPa 0 mm
01 février 13:08 5.5°C 90% 3.7 km/h ENE 1028.3 hPa 0 mm
01 février 13:07 5.6°C 91% 5.3 km/h NNE 1028.3 hPa 0 mm
01 février 13:06 5.6°C 90% 6.9 km/h NE 1028.3 hPa 0 mm
01 février 13:05 5.7°C 91% 6.9 km/h SE 1028.4 hPa 0 mm
01 février 13:04 5.6°C 91% 6.9 km/h NE 1028.4 hPa 0 mm
01 février 13:03 5.6°C 91% 5.8 km/h ESE 1028.4 hPa 0 mm
01 février 13:02 5.6°C 90% 5.8 km/h E 1028.4 hPa 0 mm
01 février 13:01 5.6°C 90% 7.9 km/h N 1028.4 hPa 0 mm
01 février 13:00 5.7°C 91% 7.4 km/h NE 1028.4 hPa 0 mm
01 février 12:59 5.6°C 90% 4.2 km/h NNE 1028.4 hPa 0 mm
01 février 12:58 5.7°C 90% 6.9 km/h NE 1028.4 hPa 0 mm
01 février 12:57 5.7°C 90% 6.3 km/h ENE 1028.4 hPa 0 mm
01 février 12:56 5.9°C 91% 6.3 km/h NNE 1028.4 hPa 0 mm
01 février 12:55 5.8°C 90% 6.9 km/h ESE 1028.4 hPa 0 mm
01 février 12:54 5.6°C 90% 5.8 km/h SE 1028.4 hPa 0 mm
01 février 12:53 5.6°C 90% 5.3 km/h SSO 1028.4 hPa 0 mm
01 février 12:52 5.6°C 90% 3.2 km/h NE 1028.4 hPa 0 mm
01 février 12:51 5.6°C 90% 3.2 km/h NNE 1028.4 hPa 0 mm
01 février 12:50 5.7°C 90% 3.7 km/h NE 1028.4 hPa 0 mm
01 février 12:49 5.7°C 91% 4.8 km/h NE 1028.4 hPa 0 mm
01 février 12:48 5.5°C 90% 4.8 km/h NNE 1028.4 hPa 0 mm
01 février 12:47 5.5°C 90% 3.2 km/h NNE 1028.4 hPa 0 mm
01 février 12:46 5.5°C 90% 3.7 km/h NNE 1028.4 hPa 0 mm
01 février 12:45 5.5°C 90% 3.2 km/h NNE 1028.4 hPa 0 mm
01 février 12:44 5.7°C 90% 5.8 km/h NNE 1028.4 hPa 0 mm
01 février 12:43 5.7°C 91% 3.7 km/h NNE 1028.4 hPa 0 mm
01 février 12:42 5.7°C 91% 3.2 km/h NE 1028.4 hPa 0 mm
01 février 12:41 5.6°C 91% 2.1 km/h ENE 1028.4 hPa 0 mm
01 février 12:40 5.5°C 91% 2.6 km/h NE 1028.4 hPa 0 mm
01 février 12:39 5.5°C 91% 4.2 km/h ENE 1028.4 hPa 0 mm
01 février 12:38 5.4°C 91% 4.2 km/h NE 1028.4 hPa 0 mm
01 février 12:37 5.4°C 91% 2.1 km/h NE 1028.4 hPa 0 mm
01 février 12:36 5.3°C 91% 3.2 km/h NE 1028.4 hPa 0 mm
01 février 12:35 5.2°C 91% 3.2 km/h NE 1028.3 hPa 0 mm
01 février 12:34 5.3°C 91% 4.2 km/h NNE 1028.3 hPa 0 mm
01 février 12:33 5.3°C 91% 4.2 km/h NNE 1028.3 hPa 0 mm
01 février 12:32 5.3°C 91% 4.2 km/h NNE 1028.3 hPa 0 mm
01 février 12:31 5.3°C 91% 5.3 km/h NNE 1028.3 hPa 0 mm
01 février 12:30 5.3°C 92% 3.7 km/h NNE 1028.3 hPa 0 mm
01 février 12:29 5.3°C 92% 3.2 km/h NE 1028.3 hPa 0 mm
01 février 12:28 5.3°C 92% 4.2 km/h NNE 1028.3 hPa 0 mm
01 février 12:27 5.3°C 92% 3.2 km/h NE 1028.3 hPa 0 mm
01 février 12:26 5.3°C 92% 3.7 km/h NE 1028.3 hPa 0 mm
01 février 12:25 5.4°C 92% 3.2 km/h ENE 1028.3 hPa 0 mm
01 février 12:24 5.3°C 92% 3.2 km/h ENE 1028.3 hPa 0 mm
01 février 12:23 5.1°C 92% 2.6 km/h E 1028.3 hPa 0 mm
01 février 12:22 5.1°C 92% 1.6 km/h ESE 1028.3 hPa 0 mm
01 février 12:21 5.1°C 92% 2.6 km/h ESE 1028.3 hPa 0 mm
01 février 12:20 5.1°C 92% 3.7 km/h ESE 1028.2 hPa 0 mm
01 février 12:19 5.0°C 92% 3.2 km/h ENE 1028.2 hPa 0 mm
01 février 12:18 4.9°C 92% 1.6 km/h SE 1028.2 hPa 0 mm
01 février 12:17 4.9°C 92% 1.6 km/h ESE 1028.2 hPa 0 mm
01 février 12:16 4.9°C 92% 2.1 km/h E 1028.2 hPa 0 mm
01 février 12:15 4.9°C 92% 1.6 km/h ESE 1028.2 hPa 0 mm
01 février 12:14 4.9°C 92% 1.1 km/h S 1028.2 hPa 0 mm
01 février 12:13 4.8°C 92% 2.1 km/h NNE 1028.2 hPa 0 mm
01 février 12:12 4.9°C 92% 2.1 km/h NNE 1028.2 hPa 0 mm
01 février 12:11 4.9°C 92% 1.6 km/h NNE 1028.2 hPa 0 mm
01 février 12:10 4.9°C 92% 2.6 km/h NNE 1028.2 hPa 0 mm
01 février 12:09 4.8°C 92% 3.7 km/h SE 1028.2 hPa 0 mm
01 février 12:08 4.7°C 91% 3.2 km/h ESE 1028.2 hPa 0 mm
01 février 12:07 4.7°C 92% 4.2 km/h NE 1028.2 hPa 0 mm
01 février 12:06 4.7°C 91% 3.7 km/h NNE 1028.2 hPa 0 mm
01 février 12:05 4.7°C 91% 4.2 km/h NNE 1028.2 hPa 0 mm
01 février 12:04 4.7°C 91% 3.2 km/h NE 1028.2 hPa 0 mm
01 février 12:03 4.8°C 91% 3.7 km/h NNE 1028.2 hPa 0 mm
01 février 12:02 4.8°C 92% 4.8 km/h NNE 1028.2 hPa 0 mm
01 février 12:01 4.8°C 92% 4.8 km/h NNE 1028.2 hPa 0 mm
01 février 12:00 4.8°C 92% 5.3 km/h NNE 1028.2 hPa 0 mm
01 février 11:59 4.7°C 91% 5.8 km/h NNE 1028.2 hPa 0 mm
01 février 11:58 4.8°C 91% 5.8 km/h NNE 1028.2 hPa 0 mm
01 février 11:57 4.8°C 92% 4.8 km/h NE 1028.2 hPa 0 mm
01 février 11:56 4.9°C 92% 4.8 km/h E 1028.2 hPa 0 mm
01 février 11:55 4.9°C 92% 5.8 km/h NNE 1028.2 hPa 0 mm
01 février 11:54 4.8°C 92% 5.3 km/h NE 1028.2 hPa 0 mm
01 février 11:53 4.8°C 92% 4.2 km/h NNE 1028.2 hPa 0 mm
01 février 11:52 4.8°C 92% 4.2 km/h NNE 1028.2 hPa 0 mm
01 février 11:51 4.8°C 92% 2.6 km/h NE 1028.2 hPa 0 mm
01 février 11:50 4.7°C 92% 2.6 km/h NNE 1028.2 hPa 0 mm
01 février 11:49 4.7°C 92% 3.2 km/h NNE 1028.2 hPa 0 mm
01 février 11:48 4.7°C 92% 3.7 km/h NNE 1028.2 hPa 0 mm
01 février 11:47 4.7°C 92% 3.2 km/h NNE 1028.2 hPa 0 mm
01 février 11:46 4.7°C 92% 2.6 km/h N 1028.2 hPa 0 mm
01 février 11:45 4.7°C 92% 5.8 km/h N 1028.2 hPa 0 mm
01 février 11:44 4.7°C 92% 5.3 km/h N 1028.2 hPa 0 mm
01 février 11:43 4.7°C 92% 4.8 km/h NE 1028.2 hPa 0 mm
01 février 11:42 4.7°C 92% 2.6 km/h NNE 1028.2 hPa 0 mm
01 février 11:41 4.6°C 92% 4.8 km/h NE 1028.2 hPa 0 mm
01 février 11:40 4.7°C 92% 4.8 km/h NE 1028.2 hPa 0 mm
01 février 11:39 4.7°C 92% 4.8 km/h NE 1028.2 hPa 0 mm
01 février 11:38 4.7°C 92% 5.3 km/h NNE 1028.2 hPa 0 mm
01 février 11:37 4.7°C 92% 4.8 km/h E 1028.2 hPa 0 mm
01 février 11:36 4.6°C 92% 4.8 km/h ENE 1028.2 hPa 0 mm
01 février 11:35 4.6°C 92% 4.8 km/h ENE 1028.2 hPa 0 mm
01 février 11:34 4.7°C 92% 5.3 km/h NNE 1028.2 hPa 0 mm
01 février 11:33 4.7°C 92% 4.2 km/h NNE 1028.2 hPa 0 mm
01 février 11:32 4.6°C 92% 5.3 km/h ENE 1028.2 hPa 0 mm
01 février 11:31 4.6°C 92% 6.3 km/h E 1028.2 hPa 0 mm
01 février 11:30 4.6°C 92% 5.3 km/h NE 1028.3 hPa 0 mm
01 février 11:29 4.7°C 92% 5.8 km/h NNE 1028.3 hPa 0 mm
01 février 11:28 4.7°C 92% 3.7 km/h E 1028.3 hPa 0 mm
01 février 11:27 4.6°C 92% 3.2 km/h NE 1028.3 hPa 0 mm
01 février 11:26 4.6°C 92% 3.2 km/h NE 1028.3 hPa 0 mm
01 février 11:25 4.5°C 92% 2.6 km/h NNE 1028.3 hPa 0 mm
01 février 11:24 4.5°C 92% 4.2 km/h NNE 1028.3 hPa 0 mm
01 février 11:23 4.6°C 92% 4.2 km/h NNE 1028.3 hPa 0 mm
01 février 11:22 4.5°C 92% 4.8 km/h NNE 1028.3 hPa 0 mm
01 février 11:21 4.5°C 92% 4.2 km/h N 1028.3 hPa 0 mm
01 février 11:20 4.5°C 92% 5.8 km/h N 1028.3 hPa 0 mm
01 février 11:19 4.5°C 92% 3.7 km/h NE 1028.3 hPa 0 mm
01 février 11:18 4.4°C 92% 4.2 km/h NE 1028.3 hPa 0 mm
01 février 11:17 4.4°C 92% 4.8 km/h NNE 1028.3 hPa 0 mm
01 février 11:16 4.4°C 92% 4.2 km/h ENE 1028.3 hPa 0 mm
01 février 11:15 4.4°C 92% 5.3 km/h NNE 1028.3 hPa 0 mm
01 février 11:14 4.4°C 92% 3.2 km/h NNE 1028.3 hPa 0 mm
01 février 11:13 4.4°C 92% 5.3 km/h NNE 1028.3 hPa 0 mm
01 février 11:12 4.4°C 92% 4.8 km/h NNE 1028.3 hPa 0 mm
01 février 11:11 4.4°C 92% 3.7 km/h NE 1028.3 hPa 0 mm
01 février 11:10 4.3°C 92% 4.8 km/h E 1028.3 hPa 0 mm
01 février 11:09 4.3°C 92% 5.8 km/h NE 1028.3 hPa 0 mm
01 février 11:08 4.4°C 92% 5.3 km/h NNE 1028.3 hPa 0 mm
01 février 11:07 4.4°C 92% 4.2 km/h NNE 1028.3 hPa 0 mm
01 février 11:06 4.4°C 92% 4.2 km/h NNE 1028.3 hPa 0 mm
01 février 11:05 4.4°C 92% 3.2 km/h NE 1028.3 hPa 0 mm
01 février 11:04 4.4°C 92% 2.6 km/h NNE 1028.3 hPa 0 mm
01 février 11:03 4.4°C 92% 4.2 km/h NNE 1028.3 hPa 0 mm
01 février 11:02 4.3°C 92% 3.2 km/h NNE 1028.3 hPa 0 mm
01 février 11:01 4.3°C 92% 5.8 km/h NNE 1028.3 hPa 0 mm
01 février 11:00 4.3°C 92% 5.3 km/h NNE 1028.3 hPa 0 mm
01 février 10:59 4.3°C 92% 5.3 km/h NE 1028.3 hPa 0 mm
01 février 10:58 4.3°C 92% 4.8 km/h NE 1028.3 hPa 0 mm
01 février 10:57 4.3°C 92% 5.3 km/h NE 1028.3 hPa 0 mm
01 février 10:56 4.3°C 92% 4.2 km/h NE 1028.3 hPa 0 mm
01 février 10:55 4.3°C 92% 4.2 km/h NNE 1028.3 hPa 0 mm
01 février 10:54 4.4°C 92% 4.8 km/h NNE 1028.3 hPa 0 mm
01 février 10:53 4.4°C 92% 3.2 km/h NE 1028.3 hPa 0 mm
01 février 10:52 4.4°C 92% 2.6 km/h NE 1028.3 hPa 0 mm
01 février 10:51 4.4°C 92% 4.8 km/h NNE 1028.3 hPa 0 mm
01 février 10:50 4.4°C 92% 4.2 km/h NNE 1028.3 hPa 0 mm
01 février 10:49 4.4°C 92% 4.2 km/h NNE 1028.3 hPa 0 mm
01 février 10:48 4.4°C 92% 4.2 km/h NNE 1028.3 hPa 0 mm
01 février 10:47 4.4°C 92% 4.2 km/h NNE 1028.3 hPa 0 mm
01 février 10:46 4.4°C 92% 3.7 km/h NNE 1028.3 hPa 0 mm
01 février 10:45 4.4°C 92% 2.6 km/h ENE 1028.3 hPa 0 mm
01 février 10:44 4.4°C 92% 2.6 km/h NNE 1028.3 hPa 0 mm
01 février 10:43 4.3°C 92% 3.2 km/h NNE 1028.3 hPa 0 mm
01 février 10:42 4.3°C 92% 3.2 km/h NNE 1028.3 hPa 0 mm
01 février 10:41 4.3°C 92% 2.1 km/h NNE 1028.3 hPa 0 mm
01 février 10:40 4.3°C 92% 2.1 km/h NNE 1028.3 hPa 0 mm
01 février 10:39 4.4°C 92% 3.7 km/h N 1028.3 hPa 0 mm
01 février 10:38 4.4°C 92% 2.6 km/h NE 1028.3 hPa 0 mm
01 février 10:37 4.5°C 92% 2.1 km/h NNE 1028.3 hPa 0 mm
01 février 10:36 4.4°C 92% 3.2 km/h NNE 1028.3 hPa 0 mm
01 février 10:35 4.4°C 92% 3.2 km/h NE 1028.3 hPa 0 mm
01 février 10:34 4.4°C 92% 2.6 km/h NE 1028.3 hPa 0 mm
01 février 10:33 4.4°C 92% 4.2 km/h NE 1028.3 hPa 0 mm
01 février 10:32 4.4°C 92% 3.2 km/h NNE 1028.3 hPa 0 mm
01 février 10:31 4.4°C 92% 2.6 km/h NE 1028.3 hPa 0 mm
01 février 10:30 4.4°C 92% 2.1 km/h NE 1028.3 hPa 0 mm
01 février 10:29 4.4°C 92% 1.6 km/h NE 1028.3 hPa 0 mm
01 février 10:28 4.4°C 92% 2.6 km/h E 1028.3 hPa 0 mm
01 février 10:27 4.4°C 92% 2.6 km/h NE 1028.3 hPa 0 mm
01 février 10:26 4.4°C 92% 2.6 km/h NE 1028.3 hPa 0 mm
01 février 10:25 4.4°C 92% 3.7 km/h NE 1028.3 hPa 0 mm
01 février 10:24 4.4°C 92% 3.7 km/h NNE 1028.3 hPa 0 mm
01 février 10:23 4.5°C 92% 3.7 km/h NE 1028.3 hPa 0 mm
01 février 10:22 4.5°C 92% 3.7 km/h NNE 1028.3 hPa 0 mm
01 février 10:21 4.5°C 92% 4.2 km/h NE 1028.3 hPa 0 mm
01 février 10:20 4.4°C 92% 2.6 km/h NE 1028.3 hPa 0 mm
01 février 10:19 4.4°C 92% 3.7 km/h NE 1028.3 hPa 0 mm
01 février 10:18 4.4°C 92% 4.8 km/h NE 1028.3 hPa 0 mm
01 février 10:17 4.4°C 92% 4.8 km/h NE 1028.3 hPa 0 mm
01 février 10:16 4.4°C 92% 6.3 km/h NE 1028.3 hPa 0 mm
01 février 10:15 4.4°C 92% 4.8 km/h NNE 1028.3 hPa 0 mm
01 février 10:14 4.5°C 92% 4.8 km/h NE 1028.3 hPa 0 mm
01 février 10:13 4.5°C 92% 5.3 km/h NE 1028.3 hPa 0 mm
01 février 10:12 4.4°C 92% 4.2 km/h NE 1028.3 hPa 0 mm
01 février 10:11 4.4°C 92% 4.2 km/h E 1028.3 hPa 0 mm
01 février 10:10 4.4°C 92% 5.3 km/h ENE 1028.3 hPa 0 mm
01 février 10:09 4.3°C 92% 4.2 km/h NE 1028.3 hPa 0 mm
01 février 10:08 4.3°C 92% 2.1 km/h ENE 1028.3 hPa 0 mm
01 février 10:07 4.4°C 92% 3.7 km/h E 1028.3 hPa 0 mm
01 février 10:06 4.4°C 92% 4.8 km/h NE 1028.3 hPa 0 mm
01 février 10:05 4.4°C 92% 3.7 km/h ENE 1028.3 hPa 0 mm
01 février 10:04 4.4°C 92% 3.7 km/h NE 1028.3 hPa 0 mm
01 février 10:03 4.4°C 92% 3.7 km/h ENE 1028.3 hPa 0 mm
01 février 10:02 4.3°C 92% 3.2 km/h E 1028.3 hPa 0 mm
01 février 10:01 4.3°C 92% 3.7 km/h ESE 1028.3 hPa 0 mm
01 février 10:00 4.3°C 92% 4.2 km/h ESE 1028.2 hPa 0 mm
01 février 09:59 4.3°C 92% 3.2 km/h ESE 1028.2 hPa 0 mm
01 février 09:58 4.3°C 92% 3.2 km/h ENE 1028.2 hPa 0 mm
01 février 09:57 4.3°C 92% 3.7 km/h E 1028.2 hPa 0 mm
01 février 09:56 4.3°C 92% 3.7 km/h ESE 1028.2 hPa 0 mm
01 février 09:55 4.2°C 92% 3.2 km/h E 1028.2 hPa 0 mm
01 février 09:54 4.2°C 92% 2.6 km/h E 1028.2 hPa 0 mm
01 février 09:53 4.2°C 92% 3.2 km/h ENE 1028.2 hPa 0 mm
01 février 09:52 4.2°C 92% 3.2 km/h ESE 1028.2 hPa 0 mm
01 février 09:51 4.2°C 92% 3.2 km/h E 1028.2 hPa 0 mm
01 février 09:50 4.3°C 92% 4.2 km/h E 1028.2 hPa 0 mm
01 février 09:49 4.4°C 92% 4.2 km/h E 1028.2 hPa 0 mm
01 février 09:48 4.4°C 92% 5.3 km/h ENE 1028.2 hPa 0 mm
01 février 09:47 4.4°C 92% 6.9 km/h E 1028.2 hPa 0 mm
01 février 09:46 4.4°C 92% 4.8 km/h ESE 1028.2 hPa 0 mm
01 février 09:45 4.4°C 92% 4.2 km/h ENE 1028.2 hPa 0 mm
01 février 09:44 4.4°C 92% 4.8 km/h NE 1028.2 hPa 0 mm
01 février 09:43 4.5°C 92% 5.3 km/h ENE 1028.2 hPa 0 mm
01 février 09:42 4.6°C 93% 5.3 km/h NE 1028.2 hPa 0 mm
01 février 09:41 4.7°C 93% 4.2 km/h ENE 1028.2 hPa 0 mm
01 février 09:40 4.7°C 93% 4.2 km/h E 1028.2 hPa 0 mm
01 février 09:39 4.8°C 93% 3.2 km/h E 1028.2 hPa 0 mm
01 février 09:38 4.7°C 93% 0.5 km/h ENE 1028.2 hPa 0 mm
01 février 09:37 4.7°C 93% 2.1 km/h ENE 1028.2 hPa 0 mm
01 février 09:36 4.5°C 93% 4.2 km/h ENE 1028.2 hPa 0 mm
01 février 09:35 4.5°C 94% 2.1 km/h NNE 1028.2 hPa 0 mm
01 février 09:34 4.4°C 94% 1.6 km/h NNE 1028.2 hPa 0 mm
01 février 09:33 4.3°C 94% 2.1 km/h NE 1028.2 hPa 0 mm
01 février 09:32 4.2°C 94% 2.1 km/h ENE 1028.2 hPa 0 mm
01 février 09:31 4.2°C 94% 1.6 km/h E 1028.2 hPa 0 mm
01 février 09:30 4.0°C 94% 1.1 km/h NE 1028.2 hPa 0 mm
01 février 09:29 3.8°C 94% 2.1 km/h ENE 1028.2 hPa 0 mm
01 février 09:28 3.7°C 94% 2.6 km/h E 1028.2 hPa 0 mm
01 février 09:27 3.6°C 94% 1.6 km/h ESE 1028.2 hPa 0 mm
01 février 09:26 3.4°C 94% 1.1 km/h ESE 1028.2 hPa 0 mm
01 février 09:25 3.3°C 94% 1.6 km/h SE 1028.2 hPa 0 mm
01 février 09:24 3.2°C 94% 1.1 km/h SE 1028.2 hPa 0 mm
01 février 09:23 3.1°C 94% 2.6 km/h E 1028.2 hPa 0 mm
01 février 09:22 3.0°C 94% 2.1 km/h ESE 1028.2 hPa 0 mm
01 février 09:21 3.0°C 94% 2.1 km/h ESE 1028.2 hPa 0 mm
01 février 09:20 3.1°C 94% 2.1 km/h SE 1028.2 hPa 0 mm
01 février 09:19 3.1°C 94% 2.1 km/h ESE 1028.2 hPa 0 mm
01 février 09:18 3.1°C 94% 1.1 km/h ESE 1028.2 hPa 0 mm
01 février 09:17 3.2°C 93% 2.1 km/h SE 1028.2 hPa 0 mm
01 février 09:16 3.2°C 94% 1.6 km/h SSE 1028.2 hPa 0 mm
01 février 09:15 3.2°C 94% 2.1 km/h ESE 1028.2 hPa 0 mm
01 février 09:14 3.2°C 94% 2.6 km/h E 1028.2 hPa 0 mm
01 février 09:13 3.1°C 93% 1.6 km/h SE 1028.2 hPa 0 mm
01 février 09:12 3.1°C 93% 2.6 km/h SE 1028.2 hPa 0 mm
01 février 09:11 3.1°C 93% 3.2 km/h SSE 1028.2 hPa 0 mm
01 février 09:10 3.1°C 93% 3.7 km/h SE 1028.1 hPa 0 mm
01 février 09:09 3.1°C 93% 2.1 km/h E 1028.1 hPa 0 mm
01 février 09:08 3.1°C 93% 1.1 km/h ESE 1028.1 hPa 0 mm
01 février 09:07 3.1°C 93% 1.1 km/h E 1028.1 hPa 0 mm
01 février 09:06 3.1°C 93% 0.0 km/h ESE 1028.1 hPa 0 mm
01 février 09:05 3.1°C 93% 0.0 km/h E 1028.1 hPa 0 mm
01 février 09:04 3.1°C 93% 1.1 km/h E 1028.1 hPa 0 mm
01 février 09:03 3.1°C 93% 1.6 km/h E 1028.1 hPa 0 mm
01 février 09:02 3.1°C 93% 1.6 km/h ESE 1028.1 hPa 0 mm
01 février 09:01 3.1°C 93% 0.0 km/h ENE 1028.1 hPa 0 mm
01 février 09:00 3.1°C 93% 0.5 km/h ENE 1028.1 hPa 0 mm
01 février 08:59 3.1°C 93% 2.1 km/h ENE 1028.1 hPa 0 mm
01 février 08:58 3.1°C 93% 1.6 km/h NE 1028.1 hPa 0 mm
01 février 08:57 3.0°C 93% 1.6 km/h NNE 1028.1 hPa 0 mm
01 février 08:56 3.0°C 93% 2.1 km/h NNE 1028.1 hPa 0 mm
01 février 08:55 3.0°C 93% 1.6 km/h NE 1028.1 hPa 0 mm
01 février 08:54 3.0°C 93% 1.6 km/h E 1028.1 hPa 0 mm
01 février 08:53 3.0°C 93% 2.6 km/h NE 1028.1 hPa 0 mm
01 février 08:52 3.0°C 93% 2.6 km/h NNE 1028.1 hPa 0 mm
01 février 08:51 3.0°C 93% 3.2 km/h NNE 1028.1 hPa 0 mm
01 février 08:50 3.0°C 93% 3.7 km/h NNE 1028.0 hPa 0 mm
01 février 08:49 3.0°C 93% 4.2 km/h NE 1028.0 hPa 0 mm
01 février 08:48 3.0°C 93% 2.6 km/h NNE 1028.0 hPa 0 mm
01 février 08:47 3.0°C 93% 2.1 km/h NE 1028.0 hPa 0 mm
01 février 08:46 3.0°C 93% 2.6 km/h NNE 1028.0 hPa 0 mm
01 février 08:45 3.0°C 93% 2.6 km/h NNE 1028.0 hPa 0 mm
01 février 08:44 3.0°C 93% 2.6 km/h NE 1028.0 hPa 0 mm
01 février 08:43 3.0°C 93% 2.6 km/h N 1028.0 hPa 0 mm
01 février 08:42 3.0°C 93% 3.7 km/h NNE 1028.0 hPa 0 mm
01 février 08:41 3.0°C 93% 3.7 km/h NNE 1028.0 hPa 0 mm
01 février 08:40 3.0°C 93% 3.2 km/h NNE 1028.2 hPa 0 mm
01 février 08:39 3.0°C 93% 3.2 km/h NNE 1028.2 hPa 0 mm
01 février 08:38 3.0°C 93% 3.2 km/h NE 1028.2 hPa 0 mm
01 février 08:37 3.0°C 93% 2.6 km/h ENE 1028.2 hPa 0 mm
01 février 08:36 3.0°C 93% 3.7 km/h NNE 1028.2 hPa 0 mm
01 février 08:35 3.0°C 93% 2.6 km/h NNE 1028.2 hPa 0 mm
01 février 08:34 3.0°C 93% 2.1 km/h NNE 1028.2 hPa 0 mm
01 février 08:33 3.0°C 93% 2.6 km/h NE 1028.2 hPa 0 mm
01 février 08:32 3.0°C 93% 1.1 km/h NE 1028.2 hPa 0 mm
01 février 08:31 2.9°C 93% 1.6 km/h NNE 1028.2 hPa 0 mm
01 février 08:30 3.0°C 93% 1.1 km/h NNE 1028.2 hPa 0 mm
01 février 08:29 2.9°C 93% 1.6 km/h NE 1028.2 hPa 0 mm
01 février 08:28 2.9°C 93% 2.1 km/h NE 1028.2 hPa 0 mm
01 février 08:27 2.9°C 93% 1.1 km/h NNE 1028.2 hPa 0 mm
01 février 08:26 2.9°C 93% 0.5 km/h NE 1028.2 hPa 0 mm
01 février 08:25 2.9°C 93% 1.1 km/h NNE 1028.2 hPa 0 mm
01 février 08:24 2.9°C 93% 1.6 km/h NE 1028.2 hPa 0 mm
01 février 08:23 2.9°C 93% 1.6 km/h NNE 1028.2 hPa 0 mm
01 février 08:22 2.8°C 93% 1.6 km/h NE 1028.2 hPa 0 mm
01 février 08:21 2.8°C 93% 1.6 km/h ENE 1028.2 hPa 0 mm
01 février 08:20 2.8°C 93% 1.1 km/h ENE 1028.2 hPa 0 mm
01 février 08:19 2.8°C 93% 0.0 km/h ENE 1028.2 hPa 0 mm
01 février 08:18 2.8°C 93% 0.0 km/h ENE 1028.2 hPa 0 mm
01 février 08:17 2.8°C 93% 0.0 km/h ENE 1028.2 hPa 0 mm
01 février 08:16 2.8°C 93% 0.0 km/h ENE 1028.2 hPa 0 mm
01 février 08:15 2.8°C 93% 0.0 km/h ENE 1028.2 hPa 0 mm
01 février 08:14 2.8°C 93% 0.0 km/h ENE 1028.2 hPa 0 mm
01 février 08:13 2.8°C 92% 0.0 km/h NE 1028.2 hPa 0 mm
01 février 08:12 2.8°C 92% 0.0 km/h ENE 1028.2 hPa 0 mm
01 février 08:11 2.8°C 92% 0.0 km/h E 1028.2 hPa 0 mm
01 février 08:10 2.8°C 92% 0.0 km/h E 1028.2 hPa 0 mm
01 février 08:09 2.8°C 92% 0.0 km/h ESE 1028.2 hPa 0 mm
01 février 08:08 2.8°C 92% 0.0 km/h SE 1028.2 hPa 0 mm
01 février 08:07 2.8°C 92% 0.0 km/h SE 1028.2 hPa 0 mm
01 février 08:06 2.9°C 92% 0.0 km/h SE 1028.2 hPa 0 mm
01 février 08:05 2.9°C 92% 0.0 km/h E 1028.2 hPa 0 mm
01 février 08:04 2.9°C 92% 0.0 km/h ENE 1028.2 hPa 0 mm
01 février 08:03 2.9°C 92% 0.0 km/h ENE 1028.2 hPa 0 mm
01 février 08:02 3.0°C 92% 0.0 km/h ENE 1028.2 hPa 0 mm
01 février 08:01 3.0°C 92% 0.0 km/h ENE 1028.2 hPa 0 mm
01 février 08:00 3.0°C 92% 0.0 km/h ENE 1028.1 hPa 0 mm
01 février 07:59 3.0°C 92% 0.5 km/h E 1028.1 hPa 0 mm
01 février 07:58 3.0°C 92% 0.0 km/h SE 1028.1 hPa 0 mm
01 février 07:57 3.0°C 92% 0.0 km/h ESE 1028.1 hPa 0 mm
01 février 07:56 2.9°C 92% 0.0 km/h NE 1028.1 hPa 0 mm
01 février 07:55 2.9°C 92% 1.6 km/h NE 1028.1 hPa 0 mm
01 février 07:54 2.9°C 92% 1.6 km/h NE 1028.1 hPa 0 mm
01 février 07:53 2.9°C 92% 0.0 km/h ENE 1028.1 hPa 0 mm
01 février 07:52 2.9°C 92% 0.0 km/h ENE 1028.1 hPa 0 mm
01 février 07:51 2.9°C 92% 0.0 km/h ENE 1028.1 hPa 0 mm
01 février 07:50 2.9°C 92% 0.0 km/h ENE 1028.1 hPa 0 mm
01 février 07:49 2.9°C 92% 0.0 km/h ENE 1028.1 hPa 0 mm
01 février 07:48 2.9°C 92% 0.0 km/h E 1028.1 hPa 0 mm
01 février 07:47 2.9°C 92% 0.0 km/h E 1028.1 hPa 0 mm
01 février 07:46 2.9°C 92% 0.0 km/h E 1028.1 hPa 0 mm
01 février 07:45 2.9°C 92% 0.0 km/h E 1028.1 hPa 0 mm
01 février 07:44 2.9°C 92% 0.0 km/h E 1028.1 hPa 0 mm
01 février 07:43 2.9°C 92% 0.0 km/h E 1028.1 hPa 0 mm
01 février 07:42 2.9°C 92% 0.0 km/h ESE 1028.1 hPa 0 mm
01 février 07:41 2.9°C 92% 0.0 km/h ESE 1028.1 hPa 0 mm
01 février 07:40 2.9°C 92% 0.0 km/h E 1028.1 hPa 0 mm
01 février 07:39 2.9°C 92% 0.5 km/h E 1028.1 hPa 0 mm
01 février 07:38 2.9°C 92% 0.5 km/h ESE 1028.1 hPa 0 mm
01 février 07:37 2.9°C 92% 0.5 km/h E 1028.1 hPa 0 mm
01 février 07:36 2.8°C 92% 1.1 km/h ESE 1028.1 hPa 0 mm
01 février 07:35 2.9°C 92% 0.0 km/h ESE 1028.0 hPa 0 mm
01 février 07:34 2.8°C 92% 0.5 km/h E 1028.0 hPa 0 mm
01 février 07:33 2.8°C 92% 1.1 km/h ESE 1028.0 hPa 0 mm
01 février 07:32 2.8°C 92% 1.1 km/h ENE 1028.0 hPa 0 mm
01 février 07:31 2.8°C 92% 2.1 km/h ENE 1028.0 hPa 0 mm
01 février 07:30 2.7°C 92% 2.1 km/h ENE 1028.0 hPa 0 mm
01 février 07:29 2.7°C 92% 0.0 km/h ENE 1028.0 hPa 0 mm
01 février 07:28 2.7°C 92% 0.0 km/h SSE 1028.0 hPa 0 mm
01 février 07:27 2.7°C 92% 1.1 km/h SE 1028.0 hPa 0 mm
01 février 07:26 2.7°C 92% 2.1 km/h SE 1028.0 hPa 0 mm
01 février 07:25 2.7°C 92% 4.8 km/h SE 1028.0 hPa 0 mm
01 février 07:24 2.7°C 92% 3.2 km/h SE 1028.0 hPa 0 mm
01 février 07:23 2.8°C 92% 3.2 km/h S 1028.0 hPa 0 mm
01 février 07:22 2.8°C 92% 3.7 km/h SSE 1028.0 hPa 0 mm
01 février 07:21 2.8°C 92% 3.2 km/h SE 1028.0 hPa 0 mm
01 février 07:20 2.8°C 92% 3.2 km/h SSE 1027.9 hPa 0 mm
01 février 07:19 2.9°C 92% 2.6 km/h SSE 1027.9 hPa 0 mm
01 février 07:18 3.0°C 91% 2.1 km/h E 1027.9 hPa 0 mm
01 février 07:17 3.0°C 91% 0.0 km/h E 1027.9 hPa 0 mm
01 février 07:16 3.0°C 91% 0.0 km/h ESE 1027.9 hPa 0 mm
01 février 07:15 3.0°C 92% 0.0 km/h ENE 1027.9 hPa 0 mm
01 février 07:14 3.0°C 92% 0.0 km/h ENE 1027.9 hPa 0 mm
01 février 07:13 3.0°C 92% 0.5 km/h E 1027.9 hPa 0 mm
01 février 07:12 3.0°C 92% 1.1 km/h ENE 1027.9 hPa 0 mm
01 février 07:11 3.0°C 91% 0.0 km/h E 1027.9 hPa 0 mm
01 février 07:10 3.0°C 91% 0.0 km/h E 1027.9 hPa 0 mm
01 février 07:09 3.1°C 91% 0.0 km/h E 1027.9 hPa 0 mm
01 février 07:08 3.1°C 91% 0.0 km/h SE 1027.9 hPa 0 mm
01 février 07:07 3.1°C 92% 0.5 km/h ENE 1027.9 hPa 0 mm
01 février 07:06 3.1°C 92% 1.1 km/h NNE 1027.9 hPa 0 mm
01 février 07:05 3.1°C 92% 1.6 km/h NE 1027.9 hPa 0 mm
01 février 07:04 3.0°C 92% 2.6 km/h NNE 1027.9 hPa 0 mm
01 février 07:03 3.0°C 92% 1.6 km/h NNE 1027.9 hPa 0 mm
01 février 07:02 3.0°C 92% 3.2 km/h NE 1027.9 hPa 0 mm
01 février 07:01 3.0°C 92% 2.6 km/h NE 1027.9 hPa 0 mm
01 février 07:00 3.0°C 92% 0.0 km/h NE 1027.8 hPa 0 mm
01 février 06:59 3.0°C 92% 0.0 km/h NE 1027.8 hPa 0 mm
01 février 06:58 3.0°C 92% 0.0 km/h NE 1027.8 hPa 0 mm
01 février 06:57 3.0°C 92% 0.0 km/h ENE 1027.8 hPa 0 mm
01 février 06:56 3.0°C 92% 0.0 km/h E 1027.8 hPa 0 mm
01 février 06:55 3.0°C 92% 0.5 km/h E 1027.8 hPa 0 mm
01 février 06:54 3.0°C 92% 1.6 km/h ESE 1027.8 hPa 0 mm
01 février 06:53 3.0°C 92% 2.1 km/h ESE 1027.8 hPa 0 mm
01 février 06:52 2.9°C 92% 2.6 km/h ESE 1027.8 hPa 0 mm
01 février 06:51 2.9°C 92% 1.6 km/h SE 1027.8 hPa 0 mm
01 février 06:50 2.8°C 92% 0.5 km/h SE 1027.8 hPa 0 mm
01 février 06:49 2.8°C 92% 2.1 km/h SE 1027.8 hPa 0 mm
01 février 06:48 2.8°C 92% 2.6 km/h SE 1027.8 hPa 0 mm
01 février 06:47 2.8°C 93% 2.1 km/h SE 1027.8 hPa 0 mm
01 février 06:46 2.8°C 93% 2.1 km/h SE 1027.8 hPa 0 mm
01 février 06:45 2.7°C 93% 1.6 km/h SE 1027.8 hPa 0 mm
01 février 06:44 2.7°C 93% 0.5 km/h SE 1027.8 hPa 0 mm
01 février 06:43 2.7°C 93% 0.5 km/h SSE 1027.8 hPa 0 mm
01 février 06:42 2.7°C 92% 1.6 km/h SE 1027.8 hPa 0 mm
01 février 06:41 2.6°C 92% 1.6 km/h SSE 1027.8 hPa 0 mm
01 février 06:40 2.6°C 92% 2.1 km/h E 1027.8 hPa 0 mm
01 février 06:39 2.6°C 92% 2.1 km/h ESE 1027.8 hPa 0 mm
01 février 06:38 2.7°C 92% 2.1 km/h ESE 1027.8 hPa 0 mm
01 février 06:37 2.6°C 92% 2.1 km/h E 1027.8 hPa 0 mm
01 février 06:36 2.6°C 92% 3.2 km/h SE 1027.8 hPa 0 mm
01 février 06:35 2.6°C 92% 3.2 km/h SSE 1027.7 hPa 0 mm
01 février 06:34 2.6°C 92% 2.6 km/h S 1027.7 hPa 0 mm
01 février 06:33 2.6°C 92% 2.1 km/h E 1027.7 hPa 0 mm
01 février 06:32 2.6°C 92% 2.1 km/h ESE 1027.7 hPa 0 mm
01 février 06:31 2.7°C 92% 1.6 km/h ESE 1027.7 hPa 0 mm
01 février 06:30 2.7°C 92% 0.0 km/h E 1027.7 hPa 0 mm
01 février 06:29 2.7°C 92% 0.0 km/h E 1027.7 hPa 0 mm
01 février 06:28 2.7°C 92% 0.0 km/h E 1027.7 hPa 0 mm
01 février 06:27 2.7°C 92% 0.0 km/h ESE 1027.7 hPa 0 mm
01 février 06:26 2.7°C 92% 0.0 km/h E 1027.7 hPa 0 mm
01 février 06:25 2.7°C 92% 0.0 km/h E 1027.7 hPa 0 mm
01 février 06:24 2.8°C 92% 0.0 km/h ESE 1027.7 hPa 0 mm
01 février 06:23 2.8°C 92% 0.0 km/h ESE 1027.7 hPa 0 mm
01 février 06:22 2.8°C 92% 0.0 km/h ESE 1027.7 hPa 0 mm
01 février 06:21 2.8°C 92% 1.1 km/h ESE 1027.7 hPa 0 mm
01 février 06:20 2.7°C 92% 0.0 km/h ESE 1027.7 hPa 0 mm
01 février 06:19 2.7°C 92% 0.0 km/h ESE 1027.7 hPa 0 mm
01 février 06:18 2.7°C 92% 0.0 km/h SE 1027.7 hPa 0 mm
01 février 06:17 2.7°C 93% 0.0 km/h SE 1027.7 hPa 0 mm
01 février 06:16 2.6°C 93% 0.0 km/h ESE 1027.7 hPa 0 mm
01 février 06:15 2.6°C 93% 0.0 km/h SE 1027.7 hPa 0 mm
01 février 06:14 2.5°C 93% 0.0 km/h ENE 1027.7 hPa 0 mm
01 février 06:13 2.5°C 93% 0.0 km/h ESE 1027.7 hPa 0 mm
01 février 06:12 2.4°C 93% 0.0 km/h ESE 1027.7 hPa 0 mm
01 février 06:11 2.4°C 93% 1.1 km/h SE 1027.7 hPa 0 mm
01 février 06:10 2.4°C 93% 1.6 km/h ESE 1027.7 hPa 0 mm
01 février 06:09 2.4°C 93% 0.0 km/h SE 1027.7 hPa 0 mm
01 février 06:08 2.4°C 93% 0.0 km/h ESE 1027.7 hPa 0 mm
01 février 06:07 2.4°C 93% 0.0 km/h SE 1027.7 hPa 0 mm
01 février 06:06 2.4°C 93% 0.0 km/h E 1027.7 hPa 0 mm
01 février 06:05 2.4°C 93% 0.0 km/h SSE 1027.6 hPa 0 mm
01 février 06:04 2.5°C 93% 0.0 km/h ESE 1027.6 hPa 0 mm
01 février 06:03 2.5°C 93% 0.0 km/h SE 1027.6 hPa 0 mm
01 février 06:02 2.5°C 93% 0.0 km/h SE 1027.6 hPa 0 mm
01 février 06:01 2.4°C 93% 0.0 km/h SE 1027.6 hPa 0 mm
01 février 06:00 2.4°C 93% 0.0 km/h SE 1027.6 hPa 0 mm
01 février 05:59 2.3°C 93% 0.0 km/h SE 1027.6 hPa 0 mm
01 février 05:58 2.3°C 93% 0.0 km/h S 1027.6 hPa 0 mm
01 février 05:57 2.3°C 93% 0.0 km/h SSE 1027.6 hPa 0 mm
01 février 05:56 2.1°C 93% 0.0 km/h SE 1027.6 hPa 0 mm
01 février 05:55 2.0°C 93% 0.0 km/h SE 1027.6 hPa 0 mm
01 février 05:54 2.0°C 93% 1.1 km/h SE 1027.6 hPa 0 mm
01 février 05:53 2.0°C 93% 1.6 km/h SSE 1027.6 hPa 0 mm
01 février 05:52 1.8°C 93% 1.6 km/h SSE 1027.6 hPa 0 mm
01 février 05:51 1.8°C 93% 1.1 km/h SE 1027.6 hPa 0 mm
01 février 05:50 1.8°C 93% 1.6 km/h ESE 1027.6 hPa 0 mm
01 février 05:49 1.7°C 93% 1.6 km/h ESE 1027.6 hPa 0 mm
01 février 05:48 1.7°C 93% 1.6 km/h SE 1027.6 hPa 0 mm
01 février 05:47 1.7°C 93% 1.6 km/h SE 1027.6 hPa 0 mm
01 février 05:46 1.7°C 93% 1.6 km/h SSE 1027.6 hPa 0 mm
01 février 05:45 1.7°C 93% 1.6 km/h SE 1027.6 hPa 0 mm
01 février 05:44 1.7°C 93% 1.6 km/h ESE 1027.6 hPa 0 mm
01 février 05:43 1.7°C 93% 1.1 km/h ESE 1027.6 hPa 0 mm
01 février 05:42 1.7°C 93% 1.6 km/h SE 1027.6 hPa 0 mm
01 février 05:41 1.7°C 93% 1.1 km/h SE 1027.6 hPa 0 mm
01 février 05:40 1.7°C 93% 1.1 km/h SSE 1027.5 hPa 0 mm
01 février 05:39 1.7°C 93% 1.6 km/h SE 1027.5 hPa 0 mm
01 février 05:38 1.8°C 93% 1.6 km/h S 1027.5 hPa 0 mm
01 février 05:37 1.8°C 93% 1.6 km/h S 1027.5 hPa 0 mm
01 février 05:36 1.8°C 93% 1.6 km/h ESE 1027.5 hPa 0 mm
01 février 05:35 1.8°C 92% 1.1 km/h E 1027.5 hPa 0 mm
01 février 05:34 1.8°C 92% 1.1 km/h SSE 1027.5 hPa 0 mm
01 février 05:33 1.9°C 92% 1.6 km/h SSE 1027.5 hPa 0 mm
01 février 05:32 1.9°C 93% 1.1 km/h SE 1027.5 hPa 0 mm
01 février 05:31 2.0°C 93% 1.1 km/h SE 1027.5 hPa 0 mm
01 février 05:30 2.0°C 92% 1.6 km/h ESE 1027.4 hPa 0 mm
01 février 05:29 2.0°C 92% 1.1 km/h SE 1027.4 hPa 0 mm
01 février 05:28 2.2°C 93% 1.1 km/h ENE 1027.4 hPa 0 mm
01 février 05:27 2.2°C 93% 0.0 km/h E 1027.4 hPa 0 mm
01 février 05:26 2.2°C 93% 0.0 km/h SE 1027.4 hPa 0 mm
01 février 05:25 2.2°C 93% 0.0 km/h SE 1027.4 hPa 0 mm
01 février 05:24 2.1°C 93% 0.5 km/h SE 1027.4 hPa 0 mm
01 février 05:23 2.1°C 93% 1.1 km/h SE 1027.4 hPa 0 mm
01 février 05:22 2.1°C 93% 0.0 km/h ESE 1027.4 hPa 0 mm
01 février 05:21 2.0°C 93% 0.0 km/h SE 1027.4 hPa 0 mm
01 février 05:20 1.9°C 93% 0.0 km/h SE 1027.3 hPa 0 mm
01 février 05:19 1.7°C 93% 0.0 km/h ESE 1027.3 hPa 0 mm
01 février 05:18 1.5°C 93% 0.5 km/h ESE 1027.3 hPa 0 mm
01 février 05:17 1.4°C 93% 1.1 km/h SE 1027.3 hPa 0 mm
01 février 05:16 1.3°C 93% 1.1 km/h SSE 1027.3 hPa 0 mm
01 février 05:15 1.2°C 93% 1.1 km/h ESE 1027.3 hPa 0 mm
01 février 05:14 1.2°C 93% 1.1 km/h SE 1027.3 hPa 0 mm
01 février 05:13 1.3°C 93% 1.6 km/h ESE 1027.3 hPa 0 mm
01 février 05:12 1.2°C 93% 1.6 km/h SE 1027.3 hPa 0 mm
01 février 05:11 1.2°C 93% 2.1 km/h SE 1027.3 hPa 0 mm
01 février 05:10 1.2°C 93% 1.6 km/h E 1027.3 hPa 0 mm
01 février 05:09 1.2°C 93% 1.6 km/h ESE 1027.3 hPa 0 mm
01 février 05:08 1.2°C 93% 1.6 km/h ESE 1027.3 hPa 0 mm
01 février 05:07 1.1°C 93% 1.6 km/h E 1027.3 hPa 0 mm
01 février 05:06 1.0°C 92% 0.0 km/h ENE 1027.3 hPa 0 mm
01 février 05:05 1.0°C 92% 0.0 km/h E 1027.3 hPa 0 mm
01 février 05:04 1.0°C 92% 0.0 km/h SE 1027.3 hPa 0 mm
01 février 05:03 1.0°C 92% 0.0 km/h ESE 1027.3 hPa 0 mm
01 février 05:02 1.0°C 92% 0.0 km/h SE 1027.3 hPa 0 mm
01 février 05:01 1.0°C 92% 0.5 km/h SE 1027.3 hPa 0 mm
01 février 05:00 1.0°C 92% 1.1 km/h SE 1027.3 hPa 0 mm
01 février 04:59 1.0°C 92% 1.1 km/h SE 1027.3 hPa 0 mm
01 février 04:58 1.0°C 92% 2.1 km/h E 1027.3 hPa 0 mm
01 février 04:57 1.0°C 92% 2.1 km/h ESE 1027.3 hPa 0 mm
01 février 04:56 1.0°C 92% 1.6 km/h SE 1027.3 hPa 0 mm
01 février 04:55 1.0°C 92% 1.6 km/h ESE 1027.3 hPa 0 mm
01 février 04:54 0.9°C 92% 1.6 km/h SE 1027.3 hPa 0 mm
01 février 04:53 1.0°C 92% 2.1 km/h SE 1027.3 hPa 0 mm
01 février 04:52 1.0°C 92% 2.1 km/h SE 1027.3 hPa 0 mm
01 février 04:51 1.0°C 92% 1.6 km/h SSE 1027.3 hPa 0 mm
01 février 04:50 1.0°C 92% 1.6 km/h SSE 1027.3 hPa 0 mm
01 février 04:49 1.0°C 92% 1.6 km/h SE 1027.3 hPa 0 mm
01 février 04:48 1.0°C 92% 2.1 km/h ESE 1027.3 hPa 0 mm
01 février 04:47 1.1°C 92% 1.1 km/h ESE 1027.3 hPa 0 mm
01 février 04:46 1.1°C 92% 1.1 km/h SE 1027.3 hPa 0 mm
01 février 04:45 1.2°C 92% 1.6 km/h E 1027.2 hPa 0 mm
01 février 04:44 1.2°C 92% 1.6 km/h ESE 1027.2 hPa 0 mm
01 février 04:43 1.1°C 92% 1.6 km/h SE 1027.2 hPa 0 mm
01 février 04:42 1.1°C 92% 0.5 km/h E 1027.2 hPa 0 mm
01 février 04:41 1.0°C 91% 1.1 km/h SE 1027.2 hPa 0 mm
01 février 04:40 1.0°C 91% 1.1 km/h SE 1027.2 hPa 0 mm
01 février 04:39 1.0°C 91% 1.1 km/h E 1027.2 hPa 0 mm
01 février 04:38 1.0°C 91% 0.5 km/h SE 1027.2 hPa 0 mm
01 février 04:37 1.0°C 91% 0.0 km/h ESE 1027.2 hPa 0 mm
01 février 04:36 1.2°C 91% 1.1 km/h SE 1027.2 hPa 0 mm
01 février 04:35 1.2°C 91% 1.6 km/h ESE 1027.2 hPa 0 mm
01 février 04:34 1.2°C 90% 2.1 km/h SE 1027.2 hPa 0 mm
01 février 04:33 1.4°C 90% 1.6 km/h E 1027.2 hPa 0 mm
01 février 04:32 1.4°C 90% 1.6 km/h ESE 1027.2 hPa 0 mm
01 février 04:31 1.6°C 90% 1.1 km/h ESE 1027.2 hPa 0 mm
01 février 04:30 1.7°C 90% 1.6 km/h SE 1027.2 hPa 0 mm
01 février 04:29 1.8°C 90% 0.0 km/h ESE 1027.2 hPa 0 mm
01 février 04:28 1.9°C 91% 0.0 km/h SE 1027.2 hPa 0 mm
01 février 04:27 2.0°C 91% 0.0 km/h ESE 1027.2 hPa 0 mm
01 février 04:26 2.0°C 91% 0.0 km/h SE 1027.2 hPa 0 mm
01 février 04:25 2.0°C 91% 0.0 km/h E 1027.2 hPa 0 mm
01 février 04:24 2.0°C 91% 0.0 km/h E 1027.2 hPa 0 mm
01 février 04:23 2.0°C 91% 0.0 km/h E 1027.2 hPa 0 mm
01 février 04:22 1.9°C 91% 0.0 km/h SE 1027.2 hPa 0 mm
01 février 04:21 1.8°C 90% 0.0 km/h SSE 1027.2 hPa 0 mm
01 février 04:20 1.8°C 90% 0.0 km/h E 1027.2 hPa 0 mm
01 février 04:19 1.8°C 90% 0.0 km/h SE 1027.2 hPa 0 mm
01 février 04:18 1.8°C 90% 0.0 km/h ESE 1027.2 hPa 0 mm
01 février 04:17 1.9°C 90% 1.1 km/h ESE 1027.2 hPa 0 mm
01 février 04:16 2.0°C 90% 1.1 km/h SE 1027.2 hPa 0 mm
01 février 04:15 2.2°C 90% 0.0 km/h E 1027.2 hPa 0 mm
01 février 04:14 2.3°C 90% 1.6 km/h ESE 1027.2 hPa 0 mm
01 février 04:13 2.4°C 90% 0.5 km/h SE 1027.2 hPa 0 mm
01 février 04:12 2.5°C 90% 0.0 km/h ESE 1027.2 hPa 0 mm
01 février 04:11 2.6°C 90% 0.0 km/h SE 1027.2 hPa 0 mm
01 février 04:10 2.6°C 90% 0.0 km/h SE 1027.3 hPa 0 mm
01 février 04:09 2.6°C 91% 0.0 km/h E 1027.3 hPa 0 mm
01 février 04:08 2.6°C 91% 0.0 km/h ESE 1027.3 hPa 0 mm
01 février 04:07 2.6°C 91% 0.0 km/h SE 1027.3 hPa 0 mm
01 février 04:06 2.5°C 91% 0.0 km/h ESE 1027.3 hPa 0 mm
01 février 04:05 2.5°C 91% 0.0 km/h SE 1027.3 hPa 0 mm
01 février 04:04 2.3°C 91% 0.5 km/h ESE 1027.3 hPa 0 mm
01 février 04:03 2.2°C 91% 0.5 km/h SE 1027.3 hPa 0 mm
01 février 04:02 2.0°C 91% 0.5 km/h ESE 1027.3 hPa 0 mm
01 février 04:01 2.0°C 91% 1.1 km/h ESE 1027.3 hPa 0 mm
01 février 04:00 2.0°C 91% 1.6 km/h SE 1027.3 hPa 0 mm
01 février 03:59 1.9°C 91% 1.6 km/h E 1027.3 hPa 0 mm
01 février 03:58 1.9°C 91% 1.6 km/h ESE 1027.3 hPa 0 mm
01 février 03:57 1.9°C 90% 2.1 km/h SE 1027.3 hPa 0 mm
01 février 03:56 2.0°C 90% 2.1 km/h SE 1027.3 hPa 0 mm
01 février 03:55 2.0°C 90% 2.1 km/h E 1027.3 hPa 0 mm
01 février 03:54 2.1°C 90% 1.6 km/h SE 1027.3 hPa 0 mm
01 février 03:53 2.4°C 90% 2.1 km/h E 1027.3 hPa 0 mm
01 février 03:52 2.4°C 90% 1.6 km/h SE 1027.3 hPa 0 mm
01 février 03:51 2.4°C 90% 1.6 km/h ESE 1027.3 hPa 0 mm
01 février 03:50 2.5°C 90% 1.6 km/h E 1027.3 hPa 0 mm
01 février 03:49 2.5°C 90% 1.6 km/h SE 1027.3 hPa 0 mm
01 février 03:48 2.6°C 90% 1.1 km/h ESE 1027.3 hPa 0 mm
01 février 03:47 2.6°C 90% 0.0 km/h E 1027.3 hPa 0 mm
01 février 03:46 2.7°C 90% 0.0 km/h ESE 1027.3 hPa 0 mm
01 février 03:45 2.7°C 90% 0.0 km/h ESE 1027.3 hPa 0 mm
01 février 03:44 2.8°C 90% 0.0 km/h ESE 1027.3 hPa 0 mm
01 février 03:43 2.8°C 90% 0.0 km/h SE 1027.3 hPa 0 mm
01 février 03:42 2.8°C 90% 0.5 km/h SE 1027.3 hPa 0 mm
01 février 03:41 2.8°C 89% 1.1 km/h ESE 1027.3 hPa 0 mm
01 février 03:40 2.8°C 89% 1.1 km/h SSE 1027.3 hPa 0 mm
01 février 03:39 2.9°C 89% 0.5 km/h SSE 1027.3 hPa 0 mm
01 février 03:38 3.0°C 89% 0.0 km/h E 1027.3 hPa 0 mm
01 février 03:37 3.0°C 89% 0.0 km/h SE 1027.3 hPa 0 mm
01 février 03:36 3.1°C 89% 0.0 km/h ESE 1027.3 hPa 0 mm
01 février 03:35 3.1°C 89% 0.0 km/h SE 1027.4 hPa 0 mm
01 février 03:34 3.1°C 89% 0.0 km/h SSE 1027.4 hPa 0 mm
01 février 03:33 3.1°C 89% 0.0 km/h E 1027.4 hPa 0 mm
01 février 03:32 3.1°C 89% 0.0 km/h ESE 1027.4 hPa 0 mm
01 février 03:31 3.1°C 89% 0.0 km/h SE 1027.4 hPa 0 mm
01 février 03:30 3.1°C 89% 0.0 km/h ESE 1027.4 hPa 0 mm
01 février 03:29 3.1°C 89% 0.0 km/h ESE 1027.4 hPa 0 mm
01 février 03:28 3.1°C 90% 0.0 km/h SE 1027.4 hPa 0 mm
01 février 03:27 3.0°C 90% 0.0 km/h ESE 1027.4 hPa 0 mm
01 février 03:26 2.9°C 90% 0.0 km/h ESE 1027.4 hPa 0 mm
01 février 03:25 2.8°C 90% 0.0 km/h E 1027.4 hPa 0 mm
01 février 03:24 2.8°C 90% 0.0 km/h ESE 1027.4 hPa 0 mm
01 février 03:23 2.6°C 90% 1.1 km/h E 1027.4 hPa 0 mm
01 février 03:22 2.6°C 90% 1.1 km/h E 1027.4 hPa 0 mm
01 février 03:21 2.6°C 90% 1.1 km/h S 1027.4 hPa 0 mm
01 février 03:20 2.6°C 90% 1.1 km/h SE 1027.4 hPa 0 mm
01 février 03:19 2.7°C 90% 1.6 km/h SE 1027.4 hPa 0 mm
01 février 03:18 2.7°C 90% 1.6 km/h SSE 1027.4 hPa 0 mm
01 février 03:17 2.7°C 90% 1.6 km/h SSO 1027.4 hPa 0 mm
01 février 03:16 2.7°C 89% 1.6 km/h SE 1027.4 hPa 0 mm
01 février 03:15 2.8°C 89% 1.6 km/h SSE 1027.4 hPa 0 mm
01 février 03:14 2.8°C 89% 1.1 km/h SE 1027.4 hPa 0 mm
01 février 03:13 2.8°C 89% 0.0 km/h SE 1027.4 hPa 0 mm
01 février 03:12 2.8°C 89% 0.0 km/h SE 1027.4 hPa 0 mm
01 février 03:11 2.9°C 89% 0.0 km/h ESE 1027.4 hPa 0 mm
01 février 03:10 2.9°C 89% 0.0 km/h ESE 1027.4 hPa 0 mm
01 février 03:09 2.8°C 89% 0.0 km/h E 1027.4 hPa 0 mm
01 février 03:08 2.9°C 89% 0.5 km/h SE 1027.4 hPa 0 mm
01 février 03:07 2.8°C 89% 1.1 km/h SE 1027.4 hPa 0 mm
01 février 03:06 2.8°C 89% 1.1 km/h E 1027.4 hPa 0 mm
01 février 03:05 2.7°C 89% 1.1 km/h E 1027.4 hPa 0 mm
01 février 03:04 2.7°C 89% 0.0 km/h SE 1027.4 hPa 0 mm
01 février 03:03 2.7°C 89% 0.5 km/h ESE 1027.4 hPa 0 mm
01 février 03:02 2.7°C 89% 1.1 km/h SE 1027.4 hPa 0 mm
01 février 03:01 2.7°C 89% 1.1 km/h SE 1027.4 hPa 0 mm
01 février 03:00 2.8°C 89% 1.1 km/h SE 1027.4 hPa 0 mm
01 février 02:59 2.8°C 89% 1.6 km/h ESE 1027.4 hPa 0 mm
01 février 02:58 2.9°C 89% 1.6 km/h SE 1027.4 hPa 0 mm
01 février 02:57 2.9°C 89% 0.0 km/h SE 1027.4 hPa 0 mm
01 février 02:56 2.9°C 89% 0.0 km/h SE 1027.4 hPa 0 mm
01 février 02:55 2.9°C 89% 0.0 km/h E 1027.5 hPa 0 mm
01 février 02:54 2.8°C 89% 0.0 km/h ESE 1027.5 hPa 0 mm
01 février 02:53 2.8°C 89% 0.0 km/h E 1027.5 hPa 0 mm
01 février 02:52 2.8°C 89% 0.0 km/h E 1027.5 hPa 0 mm
01 février 02:51 2.8°C 89% 0.0 km/h SSE 1027.5 hPa 0 mm
01 février 02:50 2.8°C 89% 0.0 km/h SE 1027.5 hPa 0 mm
01 février 02:49 2.8°C 89% 1.1 km/h ESE 1027.5 hPa 0 mm
01 février 02:48 2.7°C 89% 1.1 km/h SE 1027.5 hPa 0 mm
01 février 02:47 2.8°C 89% 1.6 km/h ESE 1027.5 hPa 0 mm
01 février 02:46 2.8°C 88% 1.6 km/h E 1027.5 hPa 0 mm
01 février 02:45 2.8°C 88% 1.6 km/h SSE 1027.5 hPa 0 mm
01 février 02:44 2.8°C 88% 1.6 km/h ESE 1027.5 hPa 0 mm
01 février 02:43 2.8°C 88% 1.1 km/h SE 1027.5 hPa 0 mm
01 février 02:42 2.9°C 88% 1.6 km/h E 1027.5 hPa 0 mm
01 février 02:41 2.9°C 88% 1.6 km/h SSE 1027.5 hPa 0 mm
01 février 02:40 3.0°C 88% 1.6 km/h ESE 1027.5 hPa 0 mm
01 février 02:39 3.0°C 88% 1.6 km/h SE 1027.5 hPa 0 mm
01 février 02:38 3.1°C 88% 1.6 km/h SSE 1027.5 hPa 0 mm
01 février 02:37 3.1°C 88% 1.1 km/h ESE 1027.5 hPa 0 mm
01 février 02:36 3.1°C 88% 1.6 km/h SE 1027.5 hPa 0 mm
01 février 02:35 3.1°C 88% 1.6 km/h SSE 1027.5 hPa 0 mm
01 février 02:34 3.1°C 88% 1.6 km/h E 1027.5 hPa 0 mm
01 février 02:33 3.1°C 88% 0.0 km/h ESE 1027.5 hPa 0 mm
01 février 02:32 3.1°C 88% 0.0 km/h ESE 1027.5 hPa 0 mm
01 février 02:31 3.1°C 88% 0.0 km/h SE 1027.5 hPa 0 mm
01 février 02:30 3.1°C 88% 0.0 km/h SE 1027.5 hPa 0 mm
01 février 02:29 3.1°C 88% 0.0 km/h NE 1027.5 hPa 0 mm
01 février 02:28 3.0°C 88% 0.0 km/h N 1027.5 hPa 0 mm
01 février 02:27 3.0°C 88% 0.0 km/h N 1027.5 hPa 0 mm
01 février 02:26 3.0°C 88% 0.0 km/h N 1027.5 hPa 0 mm
01 février 02:25 3.0°C 88% 0.0 km/h N 1027.5 hPa 0 mm
01 février 02:24 3.0°C 88% 0.5 km/h N 1027.5 hPa 0 mm
01 février 02:23 2.9°C 88% 1.1 km/h N 1027.5 hPa 0 mm
01 février 02:22 2.9°C 88% 1.6 km/h E 1027.5 hPa 0 mm
01 février 02:21 3.0°C 88% 1.1 km/h SSO 1027.5 hPa 0 mm
01 février 02:20 3.0°C 88% 0.5 km/h E 1027.5 hPa 0 mm
01 février 02:19 3.0°C 88% 0.5 km/h N 1027.5 hPa 0 mm
01 février 02:18 3.0°C 88% 0.5 km/h S 1027.5 hPa 0 mm
01 février 02:17 3.0°C 88% 0.0 km/h S 1027.5 hPa 0 mm
01 février 02:16 3.0°C 88% 0.0 km/h ESE 1027.5 hPa 0 mm
01 février 02:15 3.0°C 88% 0.0 km/h N 1027.5 hPa 0 mm
01 février 02:14 3.0°C 88% 0.0 km/h N 1027.5 hPa 0 mm
01 février 02:13 3.0°C 88% 0.0 km/h N 1027.5 hPa 0 mm
01 février 02:12 3.0°C 88% 0.0 km/h N 1027.5 hPa 0 mm
01 février 02:11 3.1°C 88% 0.0 km/h N 1027.5 hPa 0 mm
01 février 02:10 3.1°C 88% 1.1 km/h N 1027.5 hPa 0 mm
01 février 02:09 3.1°C 88% 0.5 km/h N 1027.5 hPa 0 mm
01 février 02:08 3.1°C 88% 0.5 km/h N 1027.5 hPa 0 mm
01 février 02:07 3.1°C 87% 1.1 km/h N 1027.5 hPa 0 mm
01 février 02:06 3.2°C 87% 1.1 km/h N 1027.5 hPa 0 mm
01 février 02:05 3.2°C 87% 1.1 km/h N 1027.5 hPa 0 mm
01 février 02:04 3.2°C 87% 1.1 km/h N 1027.5 hPa 0 mm
01 février 02:03 3.2°C 87% 1.6 km/h N 1027.5 hPa 0 mm
01 février 02:02 3.3°C 87% 0.5 km/h N 1027.5 hPa 0 mm
01 février 02:01 3.3°C 87% 0.0 km/h N 1027.5 hPa 0 mm
01 février 02:00 3.4°C 86% 1.1 km/h N 1027.5 hPa 0 mm
01 février 01:59 3.4°C 86% 1.1 km/h N 1027.5 hPa 0 mm
01 février 01:58 3.5°C 86% 1.1 km/h N 1027.5 hPa 0 mm
01 février 01:57 3.5°C 86% 1.1 km/h N 1027.5 hPa 0 mm
01 février 01:56 3.6°C 86% 1.1 km/h N 1027.5 hPa 0 mm
01 février 01:55 3.6°C 86% 1.1 km/h N 1027.5 hPa 0 mm
01 février 01:54 3.6°C 86% 1.6 km/h N 1027.5 hPa 0 mm
01 février 01:53 3.7°C 86% 0.0 km/h NE 1027.5 hPa 0 mm
01 février 01:52 3.7°C 86% 0.5 km/h NE 1027.5 hPa 0 mm
01 février 01:51 3.6°C 86% 1.1 km/h NE 1027.5 hPa 0 mm
01 février 01:50 3.6°C 87% 1.6 km/h NE 1027.5 hPa 0 mm
01 février 01:49 3.6°C 87% 1.1 km/h NE 1027.5 hPa 0 mm
01 février 01:48 3.5°C 87% 0.0 km/h E 1027.5 hPa 0 mm
01 février 01:47 3.6°C 87% 0.0 km/h ESE 1027.5 hPa 0 mm
01 février 01:46 3.5°C 87% 0.0 km/h ESE 1027.5 hPa 0 mm
01 février 01:45 3.5°C 87% 0.0 km/h E 1027.5 hPa 0 mm
01 février 01:44 3.5°C 87% 0.0 km/h E 1027.5 hPa 0 mm
01 février 01:43 3.4°C 87% 0.0 km/h ESE 1027.5 hPa 0 mm
01 février 01:42 3.4°C 87% 0.0 km/h E 1027.5 hPa 0 mm
01 février 01:41 3.4°C 87% 0.0 km/h ENE 1027.5 hPa 0 mm
01 février 01:40 3.3°C 87% 0.5 km/h N 1027.5 hPa 0 mm
01 février 01:39 3.3°C 88% 1.1 km/h SE 1027.5 hPa 0 mm
01 février 01:38 3.3°C 88% 2.1 km/h SO 1027.5 hPa 0 mm
01 février 01:37 3.3°C 88% 1.6 km/h SSO 1027.5 hPa 0 mm
01 février 01:36 3.3°C 88% 1.1 km/h ESE 1027.5 hPa 0 mm
01 février 01:35 3.3°C 88% 1.6 km/h S 1027.4 hPa 0 mm
01 février 01:34 3.3°C 88% 2.1 km/h SE 1027.4 hPa 0 mm
01 février 01:33 3.3°C 87% 2.6 km/h SSE 1027.4 hPa 0 mm
01 février 01:32 3.4°C 87% 0.0 km/h S 1027.4 hPa 0 mm
01 février 01:31 3.4°C 87% 0.0 km/h SSE 1027.4 hPa 0 mm
01 février 01:30 3.5°C 87% 0.0 km/h S 1027.4 hPa 0 mm
01 février 01:29 3.5°C 87% 0.0 km/h SE 1027.4 hPa 0 mm
01 février 01:28 3.5°C 87% 0.0 km/h SSE 1027.4 hPa 0 mm
01 février 01:27 3.6°C 86% 0.0 km/h SSE 1027.4 hPa 0 mm
01 février 01:26 3.6°C 86% 0.0 km/h SE 1027.4 hPa 0 mm
01 février 01:25 3.8°C 85% 0.5 km/h ESE 1027.4 hPa 0 mm
01 février 01:24 3.9°C 85% 0.5 km/h N 1027.4 hPa 0 mm
01 février 01:23 3.9°C 85% 1.1 km/h N 1027.4 hPa 0 mm
01 février 01:22 4.0°C 85% 1.1 km/h N 1027.4 hPa 0 mm
01 février 01:21 4.0°C 84% 0.5 km/h N 1027.4 hPa 0 mm
01 février 01:20 4.0°C 84% 1.1 km/h N 1027.4 hPa 0 mm
01 février 01:19 4.1°C 84% 1.1 km/h NNE 1027.4 hPa 0 mm
01 février 01:18 4.1°C 84% 1.6 km/h NNE 1027.4 hPa 0 mm
01 février 01:17 4.1°C 84% 2.6 km/h N 1027.4 hPa 0 mm
01 février 01:16 4.1°C 84% 1.6 km/h NNE 1027.4 hPa 0 mm
01 février 01:15 4.1°C 84% 0.0 km/h SSE 1027.5 hPa 0 mm
01 février 01:14 4.2°C 84% 1.1 km/h ESE 1027.5 hPa 0 mm
01 février 01:13 4.1°C 84% 1.6 km/h ESE 1027.5 hPa 0 mm
01 février 01:12 4.1°C 84% 2.1 km/h E 1027.5 hPa 0 mm
01 février 01:11 4.1°C 84% 2.1 km/h E 1027.5 hPa 0 mm
01 février 01:10 4.1°C 85% 2.6 km/h E 1027.5 hPa 0 mm
01 février 01:09 4.0°C 85% 2.6 km/h E 1027.5 hPa 0 mm
01 février 01:08 4.0°C 85% 3.2 km/h E 1027.5 hPa 0 mm
01 février 01:07 4.0°C 85% 2.6 km/h ENE 1027.5 hPa 0 mm
01 février 01:06 4.0°C 85% 3.7 km/h E 1027.5 hPa 0 mm
01 février 01:05 4.0°C 85% 3.7 km/h E 1027.5 hPa 0 mm
01 février 01:04 3.9°C 85% 2.1 km/h ENE 1027.5 hPa 0 mm
01 février 01:03 4.2°C 84% 1.6 km/h E 1027.5 hPa 0 mm
01 février 01:02 4.2°C 84% 1.6 km/h E 1027.5 hPa 0 mm
01 février 01:01 4.2°C 83% 1.6 km/h E 1027.5 hPa 0 mm
01 février 01:00 4.2°C 83% 1.6 km/h E 1027.5 hPa 0 mm
01 février 00:59 4.2°C 84% 2.1 km/h ENE 1027.5 hPa 0 mm
01 février 00:58 4.2°C 84% 2.6 km/h ENE 1027.5 hPa 0 mm
01 février 00:57 4.2°C 84% 2.6 km/h ENE 1027.5 hPa 0 mm
01 février 00:56 4.2°C 84% 1.1 km/h NE 1027.5 hPa 0 mm
01 février 00:55 4.2°C 84% 1.1 km/h NNE 1027.5 hPa 0 mm
01 février 00:54 4.2°C 84% 2.1 km/h NE 1027.5 hPa 0 mm
01 février 00:53 4.2°C 84% 1.6 km/h NE 1027.5 hPa 0 mm
01 février 00:52 4.2°C 84% 0.5 km/h ENE 1027.5 hPa 0 mm
01 février 00:51 4.2°C 84% 2.1 km/h E 1027.5 hPa 0 mm
01 février 00:50 4.2°C 84% 2.1 km/h NE 1027.5 hPa 0 mm
01 février 00:49 4.2°C 84% 2.6 km/h ENE 1027.5 hPa 0 mm
01 février 00:48 4.2°C 84% 2.6 km/h ESE 1027.5 hPa 0 mm
01 février 00:47 4.2°C 84% 2.6 km/h E 1027.5 hPa 0 mm
01 février 00:46 4.2°C 84% 2.6 km/h E 1027.5 hPa 0 mm
01 février 00:45 4.1°C 84% 3.7 km/h ENE 1027.5 hPa 0 mm
01 février 00:44 4.1°C 85% 3.7 km/h ENE 1027.5 hPa 0 mm
01 février 00:43 4.1°C 85% 3.2 km/h ENE 1027.5 hPa 0 mm
01 février 00:42 4.1°C 85% 2.6 km/h ENE 1027.5 hPa 0 mm
01 février 00:41 4.0°C 85% 3.7 km/h E 1027.5 hPa 0 mm
01 février 00:40 4.0°C 85% 4.2 km/h E 1027.5 hPa 0 mm
01 février 00:39 3.8°C 86% 4.2 km/h E 1027.5 hPa 0 mm
01 février 00:38 3.8°C 86% 4.2 km/h E 1027.5 hPa 0 mm
01 février 00:37 3.8°C 86% 2.6 km/h ESE 1027.5 hPa 0 mm
01 février 00:36 3.8°C 86% 2.1 km/h ESE 1027.5 hPa 0 mm
01 février 00:35 3.8°C 86% 1.6 km/h ESE 1027.5 hPa 0 mm
01 février 00:34 3.7°C 86% 2.1 km/h ENE 1027.5 hPa 0 mm
01 février 00:33 3.6°C 87% 2.1 km/h E 1027.5 hPa 0 mm
01 février 00:32 3.6°C 87% 3.2 km/h E 1027.5 hPa 0 mm
01 février 00:31 3.5°C 87% 2.6 km/h E 1027.5 hPa 0 mm
01 février 00:30 3.5°C 87% 0.0 km/h E 1027.5 hPa 0 mm
01 février 00:29 3.5°C 87% 0.0 km/h E 1027.5 hPa 0 mm
01 février 00:28 3.6°C 87% 0.0 km/h ENE 1027.5 hPa 0 mm
01 février 00:27 3.6°C 86% 0.0 km/h ENE 1027.5 hPa 0 mm
01 février 00:26 3.7°C 86% 0.0 km/h E 1027.5 hPa 0 mm
01 février 00:25 3.7°C 86% 0.0 km/h SE 1027.5 hPa 0 mm
01 février 00:24 3.8°C 85% 0.0 km/h SSE 1027.5 hPa 0 mm
01 février 00:23 3.9°C 85% 0.0 km/h SE 1027.5 hPa 0 mm
01 février 00:22 3.9°C 85% 0.0 km/h ESE 1027.5 hPa 0 mm
01 février 00:21 4.0°C 84% 0.0 km/h E 1027.5 hPa 0 mm
01 février 00:20 4.0°C 84% 0.0 km/h E 1027.6 hPa 0 mm
01 février 00:19 4.1°C 84% 0.0 km/h ENE 1027.6 hPa 0 mm
01 février 00:18 4.1°C 84% 0.0 km/h ENE 1027.6 hPa 0 mm
01 février 00:17 4.1°C 84% 0.0 km/h ENE 1027.6 hPa 0 mm
01 février 00:16 4.1°C 84% 0.0 km/h E 1027.6 hPa 0 mm
01 février 00:15 4.2°C 84% 0.5 km/h E 1027.6 hPa 0 mm
01 février 00:14 4.2°C 84% 1.1 km/h E 1027.6 hPa 0 mm
01 février 00:13 4.2°C 84% 1.1 km/h ENE 1027.6 hPa 0 mm
01 février 00:12 4.2°C 84% 2.1 km/h NE 1027.6 hPa 0 mm
01 février 00:11 4.2°C 84% 2.1 km/h NE 1027.6 hPa 0 mm
01 février 00:10 4.2°C 84% 1.6 km/h NE 1027.6 hPa 0 mm
01 février 00:09 4.3°C 84% 1.6 km/h ENE 1027.6 hPa 0 mm
01 février 00:08 4.3°C 84% 2.1 km/h ENE 1027.6 hPa 0 mm
01 février 00:07 4.3°C 84% 2.1 km/h ENE 1027.6 hPa 0 mm
01 février 00:06 4.3°C 84% 1.6 km/h ENE 1027.6 hPa 0 mm
01 février 00:05 4.3°C 84% 1.6 km/h NE 1027.6 hPa 0 mm
01 février 00:04 4.3°C 84% 1.6 km/h ENE 1027.6 hPa 0 mm
01 février 00:03 4.3°C 84% 2.6 km/h ENE 1027.6 hPa 0 mm
01 février 00:02 4.3°C 84% 2.1 km/h ENE 1027.6 hPa 0 mm
01 février 00:01 4.3°C 84% 2.1 km/h NE 1027.6 hPa 0 mm
01 février 00:00 4.2°C 84% 2.1 km/h ENE 1027.7 hPa 0 mm
31 janvier 23:59 4.2°C 84% 2.6 km/h NE 1027.7 hPa 0 mm
31 janvier 23:58 4.3°C 84% 2.6 km/h ENE 1027.7 hPa 0 mm
31 janvier 23:57 4.2°C 84% 3.7 km/h ENE 1027.7 hPa 0 mm
31 janvier 23:56 4.3°C 84% 2.6 km/h ENE 1027.7 hPa 0 mm
31 janvier 23:55 4.3°C 84% 2.1 km/h ENE 1027.7 hPa 0 mm
31 janvier 23:54 4.3°C 84% 2.6 km/h ENE 1027.7 hPa 0 mm
31 janvier 23:53 4.3°C 84% 2.6 km/h ENE 1027.7 hPa 0 mm
31 janvier 23:52 4.3°C 84% 2.6 km/h ENE 1027.7 hPa 0 mm
31 janvier 23:51 4.3°C 84% 2.6 km/h NE 1027.7 hPa 0 mm
31 janvier 23:50 4.3°C 84% 2.6 km/h E 1027.8 hPa 0 mm
31 janvier 23:49 4.3°C 84% 2.6 km/h E 1027.8 hPa 0 mm
31 janvier 23:48 4.3°C 84% 3.2 km/h ENE 1027.8 hPa 0 mm
31 janvier 23:47 4.3°C 84% 4.2 km/h NE 1027.8 hPa 0 mm
31 janvier 23:46 4.3°C 84% 2.1 km/h NE 1027.8 hPa 0 mm
31 janvier 23:45 4.2°C 84% 3.7 km/h ENE 1027.8 hPa 0 mm
31 janvier 23:44 4.2°C 84% 3.7 km/h NE 1027.8 hPa 0 mm
31 janvier 23:43 4.2°C 84% 3.2 km/h NE 1027.8 hPa 0 mm
31 janvier 23:42 4.2°C 84% 3.2 km/h NE 1027.8 hPa 0 mm
31 janvier 23:41 4.2°C 84% 3.2 km/h ENE 1027.8 hPa 0 mm
31 janvier 23:40 4.2°C 84% 4.2 km/h NE 1027.9 hPa 0 mm
31 janvier 23:39 4.1°C 84% 2.6 km/h ENE 1027.9 hPa 0 mm
31 janvier 23:38 4.1°C 84% 3.2 km/h ENE 1027.9 hPa 0 mm
31 janvier 23:37 4.1°C 84% 3.2 km/h NE 1027.9 hPa 0 mm
31 janvier 23:36 4.1°C 84% 2.6 km/h ENE 1027.9 hPa 0 mm
31 janvier 23:35 4.1°C 84% 1.6 km/h ENE 1028.0 hPa 0 mm
31 janvier 23:34 4.2°C 84% 1.6 km/h E 1028.0 hPa 0 mm
31 janvier 23:33 4.1°C 84% 2.1 km/h ENE 1028.0 hPa 0 mm
31 janvier 23:32 4.2°C 84% 2.1 km/h NE 1028.0 hPa 0 mm
31 janvier 23:31 4.2°C 84% 2.1 km/h NE 1028.0 hPa 0 mm
31 janvier 23:30 4.2°C 84% 2.1 km/h NE 1028.0 hPa 0 mm
31 janvier 23:29 4.2°C 84% 1.6 km/h NE 1028.0 hPa 0 mm
31 janvier 23:28 4.2°C 84% 1.6 km/h NE 1028.0 hPa 0 mm
31 janvier 23:27 4.2°C 84% 2.1 km/h NE 1028.0 hPa 0 mm
31 janvier 23:26 4.3°C 84% 2.1 km/h NE 1028.0 hPa 0 mm
31 janvier 23:25 4.3°C 84% 2.6 km/h NE 1028.1 hPa 0 mm
31 janvier 23:24 4.2°C 84% 3.7 km/h NE 1028.1 hPa 0 mm
31 janvier 23:23 4.3°C 84% 2.1 km/h NE 1028.1 hPa 0 mm
31 janvier 23:22 4.3°C 84% 1.1 km/h ENE 1028.1 hPa 0 mm
31 janvier 23:21 4.3°C 84% 1.6 km/h ENE 1028.1 hPa 0 mm
31 janvier 23:20 4.3°C 84% 2.1 km/h ENE 1028.1 hPa 0 mm
31 janvier 23:19 4.4°C 84% 1.1 km/h E 1028.1 hPa 0 mm
31 janvier 23:18 4.4°C 84% 2.1 km/h NE 1028.1 hPa 0 mm
31 janvier 23:17 4.4°C 84% 1.1 km/h NE 1028.1 hPa 0 mm
31 janvier 23:16 4.3°C 84% 2.1 km/h NNE 1028.1 hPa 0 mm
31 janvier 23:15 4.3°C 84% 2.1 km/h NNE 1028.2 hPa 0 mm
31 janvier 23:14 4.3°C 84% 2.1 km/h NE 1028.2 hPa 0 mm
31 janvier 23:13 4.4°C 84% 1.6 km/h NE 1028.2 hPa 0 mm
31 janvier 23:12 4.4°C 84% 2.6 km/h NE 1028.2 hPa 0 mm
31 janvier 23:11 4.4°C 84% 2.1 km/h NE 1028.2 hPa 0 mm
31 janvier 23:10 4.4°C 84% 2.6 km/h NE 1028.2 hPa 0 mm
31 janvier 23:09 4.4°C 84% 2.6 km/h NE 1028.2 hPa 0 mm
31 janvier 23:08 4.4°C 84% 2.1 km/h NE 1028.2 hPa 0 mm
31 janvier 23:07 4.4°C 84% 0.5 km/h ENE 1028.2 hPa 0 mm
31 janvier 23:06 4.4°C 84% 1.6 km/h ENE 1028.2 hPa 0 mm
31 janvier 23:05 4.5°C 84% 1.6 km/h ENE 1028.3 hPa 0 mm
31 janvier 23:04 4.5°C 84% 2.6 km/h NE 1028.3 hPa 0 mm
31 janvier 23:03 4.4°C 84% 2.1 km/h NE 1028.3 hPa 0 mm
31 janvier 23:02 4.5°C 84% 4.8 km/h NNE 1028.3 hPa 0 mm
31 janvier 23:01 4.4°C 84% 2.6 km/h NNE 1028.3 hPa 0 mm
31 janvier 23:00 4.5°C 84% 2.6 km/h NNE 1028.3 hPa 0 mm
31 janvier 22:59 4.5°C 84% 4.2 km/h NE 1028.3 hPa 0 mm
31 janvier 22:58 4.5°C 84% 5.8 km/h NNE 1028.3 hPa 0 mm
31 janvier 22:57 4.5°C 84% 3.2 km/h NE 1028.3 hPa 0 mm
31 janvier 22:56 4.5°C 84% 2.6 km/h ENE 1028.3 hPa 0 mm
31 janvier 22:55 4.4°C 84% 4.2 km/h NE 1028.3 hPa 0 mm
31 janvier 22:54 4.4°C 84% 5.3 km/h NE 1028.3 hPa 0 mm
31 janvier 22:53 4.4°C 84% 3.7 km/h NNE 1028.3 hPa 0 mm
31 janvier 22:52 4.4°C 84% 3.2 km/h NE 1028.3 hPa 0 mm
31 janvier 22:51 4.5°C 84% 3.2 km/h NE 1028.3 hPa 0 mm
31 janvier 22:50 4.5°C 84% 3.2 km/h NE 1028.4 hPa 0 mm
31 janvier 22:49 4.4°C 84% 4.8 km/h NE 1028.4 hPa 0 mm
31 janvier 22:48 4.4°C 84% 5.3 km/h NNE 1028.4 hPa 0 mm
31 janvier 22:47 4.4°C 84% 3.2 km/h NNE 1028.4 hPa 0 mm
31 janvier 22:46 4.4°C 84% 3.2 km/h NE 1028.4 hPa 0 mm
31 janvier 22:45 4.4°C 84% 4.2 km/h NE 1028.4 hPa 0 mm
31 janvier 22:44 4.3°C 84% 6.3 km/h NNE 1028.4 hPa 0 mm
31 janvier 22:43 4.3°C 84% 4.8 km/h NNE 1028.4 hPa 0 mm
31 janvier 22:42 4.3°C 84% 4.2 km/h NE 1028.4 hPa 0 mm
31 janvier 22:41 4.3°C 84% 3.7 km/h NNE 1028.4 hPa 0 mm
31 janvier 22:40 4.3°C 84% 8.4 km/h NNE 1028.5 hPa 0 mm
31 janvier 22:39 4.2°C 84% 4.8 km/h NE 1028.5 hPa 0 mm
31 janvier 22:38 4.2°C 84% 3.2 km/h NNE 1028.5 hPa 0 mm
31 janvier 22:37 4.2°C 84% 3.2 km/h NE 1028.5 hPa 0 mm
31 janvier 22:36 4.2°C 84% 2.6 km/h NE 1028.5 hPa 0 mm
31 janvier 22:35 4.2°C 84% 2.6 km/h NE 1028.5 hPa 0 mm
31 janvier 22:34 4.2°C 84% 2.6 km/h NE 1028.5 hPa 0 mm
31 janvier 22:33 4.2°C 84% 1.6 km/h NNE 1028.5 hPa 0 mm
31 janvier 22:32 4.2°C 84% 2.1 km/h NNE 1028.5 hPa 0 mm
31 janvier 22:31 4.2°C 84% 0.5 km/h NE 1028.5 hPa 0 mm
31 janvier 22:30 4.2°C 84% 1.6 km/h NNE 1028.5 hPa 0 mm
31 janvier 22:29 4.2°C 84% 1.6 km/h N 1028.5 hPa 0 mm
31 janvier 22:28 4.3°C 84% 1.6 km/h NE 1028.5 hPa 0 mm
31 janvier 22:27 4.3°C 84% 1.1 km/h N 1028.5 hPa 0 mm
31 janvier 22:26 4.3°C 84% 1.1 km/h N 1028.5 hPa 0 mm
31 janvier 22:25 4.3°C 84% 1.1 km/h E 1028.5 hPa 0 mm
31 janvier 22:24 4.3°C 84% 1.6 km/h NE 1028.5 hPa 0 mm
31 janvier 22:23 4.3°C 84% 1.6 km/h NNE 1028.5 hPa 0 mm
31 janvier 22:22 4.3°C 84% 1.1 km/h NNE 1028.5 hPa 0 mm
31 janvier 22:21 4.3°C 84% 0.5 km/h NNE 1028.5 hPa 0 mm
31 janvier 22:20 4.3°C 84% 0.5 km/h NE 1028.6 hPa 0 mm
31 janvier 22:19 4.4°C 84% 1.6 km/h NE 1028.6 hPa 0 mm
31 janvier 22:18 4.4°C 84% 2.1 km/h NE 1028.6 hPa 0 mm
31 janvier 22:17 4.4°C 84% 2.6 km/h NE 1028.6 hPa 0 mm
31 janvier 22:16 4.4°C 84% 2.6 km/h NNE 1028.6 hPa 0 mm
31 janvier 22:15 4.4°C 84% 2.1 km/h NNE 1028.6 hPa 0 mm
31 janvier 22:14 4.4°C 84% 3.7 km/h NNE 1028.6 hPa 0 mm
31 janvier 22:13 4.4°C 84% 3.7 km/h NE 1028.6 hPa 0 mm
31 janvier 22:12 4.4°C 84% 1.6 km/h N 1028.6 hPa 0 mm
31 janvier 22:11 4.4°C 84% 2.1 km/h NNE 1028.6 hPa 0 mm
31 janvier 22:10 4.5°C 84% 1.6 km/h NNE 1028.6 hPa 0 mm
31 janvier 22:09 4.5°C 84% 1.6 km/h NNE 1028.6 hPa 0 mm
31 janvier 22:08 4.5°C 84% 1.6 km/h NNE 1028.6 hPa 0 mm
31 janvier 22:07 4.5°C 84% 3.2 km/h NNE 1028.6 hPa 0 mm
31 janvier 22:06 4.5°C 84% 3.2 km/h NNE 1028.6 hPa 0 mm
31 janvier 22:05 4.4°C 84% 3.2 km/h NNE 1028.6 hPa 0 mm
31 janvier 22:04 4.4°C 84% 2.6 km/h NNE 1028.6 hPa 0 mm
31 janvier 22:03 4.4°C 84% 3.2 km/h NE 1028.6 hPa 0 mm
31 janvier 22:02 4.4°C 84% 2.6 km/h NNE 1028.6 hPa 0 mm
31 janvier 22:01 4.3°C 84% 2.6 km/h NNE 1028.6 hPa 0 mm
31 janvier 22:00 4.3°C 84% 3.7 km/h NNE 1028.6 hPa 0 mm
31 janvier 21:59 4.3°C 84% 3.2 km/h NNE 1028.6 hPa 0 mm
31 janvier 21:58 4.3°C 84% 2.6 km/h NNE 1028.6 hPa 0 mm
31 janvier 21:57 4.3°C 84% 1.6 km/h NE 1028.6 hPa 0 mm
31 janvier 21:56 4.3°C 84% 1.6 km/h NE 1028.6 hPa 0 mm
31 janvier 21:55 4.3°C 84% 1.6 km/h NNE 1028.6 hPa 0 mm
31 janvier 21:54 4.3°C 84% 1.1 km/h NE 1028.6 hPa 0 mm
31 janvier 21:53 4.3°C 84% 2.1 km/h E 1028.6 hPa 0 mm
31 janvier 21:52 4.4°C 84% 3.2 km/h NE 1028.6 hPa 0 mm
31 janvier 21:51 4.4°C 84% 2.6 km/h NE 1028.6 hPa 0 mm
31 janvier 21:50 4.3°C 84% 3.2 km/h NE 1028.6 hPa 0 mm
31 janvier 21:49 4.3°C 84% 3.7 km/h NNE 1028.6 hPa 0 mm
31 janvier 21:48 4.3°C 84% 3.2 km/h NNE 1028.6 hPa 0 mm
31 janvier 21:47 4.3°C 84% 3.2 km/h NNE 1028.6 hPa 0 mm
31 janvier 21:46 4.3°C 84% 3.2 km/h NNE 1028.6 hPa 0 mm
31 janvier 21:45 4.3°C 84% 2.1 km/h NE 1028.6 hPa 0 mm
31 janvier 21:44 4.3°C 84% 1.6 km/h NE 1028.6 hPa 0 mm
31 janvier 21:43 4.2°C 85% 3.2 km/h NNE 1028.6 hPa 0 mm
31 janvier 21:42 4.2°C 85% 4.8 km/h NNE 1028.6 hPa 0 mm
31 janvier 21:41 4.2°C 85% 2.6 km/h NNE 1028.6 hPa 0 mm
31 janvier 21:40 4.2°C 85% 2.6 km/h NNE 1028.6 hPa 0 mm
31 janvier 21:39 4.1°C 85% 3.2 km/h NNE 1028.6 hPa 0 mm
31 janvier 21:38 4.1°C 85% 3.7 km/h NE 1028.6 hPa 0 mm
31 janvier 21:37 4.1°C 85% 3.2 km/h NNE 1028.6 hPa 0 mm
31 janvier 21:36 4.0°C 85% 2.6 km/h NNE 1028.6 hPa 0 mm
31 janvier 21:35 4.0°C 85% 1.1 km/h N 1028.6 hPa 0 mm
31 janvier 21:34 4.0°C 85% 1.1 km/h SE 1028.6 hPa 0 mm
31 janvier 21:33 4.0°C 85% 1.1 km/h ESE 1028.6 hPa 0 mm
31 janvier 21:32 4.0°C 85% 1.1 km/h NNE 1028.6 hPa 0 mm
31 janvier 21:31 4.0°C 85% 1.1 km/h NE 1028.6 hPa 0 mm
31 janvier 21:30 4.0°C 85% 1.1 km/h NNE 1028.6 hPa 0 mm
31 janvier 21:29 4.0°C 85% 0.5 km/h NE 1028.6 hPa 0 mm
31 janvier 21:28 4.0°C 85% 2.1 km/h NNE 1028.6 hPa 0 mm
31 janvier 21:27 4.0°C 85% 2.6 km/h NE 1028.6 hPa 0 mm
31 janvier 21:26 4.0°C 85% 1.6 km/h NNE 1028.6 hPa 0 mm
31 janvier 21:25 4.0°C 85% 1.6 km/h NNE 1028.6 hPa 0 mm
31 janvier 21:24 4.0°C 85% 2.1 km/h NNE 1028.6 hPa 0 mm
31 janvier 21:23 4.0°C 85% 2.6 km/h NE 1028.6 hPa 0 mm
31 janvier 21:22 4.0°C 85% 1.6 km/h NE 1028.6 hPa 0 mm
31 janvier 21:21 4.0°C 85% 1.6 km/h NE 1028.6 hPa 0 mm
31 janvier 21:20 4.0°C 85% 1.1 km/h NNE 1028.5 hPa 0 mm
31 janvier 21:19 4.1°C 85% 0.5 km/h NE 1028.5 hPa 0 mm
31 janvier 21:18 4.1°C 85% 1.1 km/h ENE 1028.5 hPa 0 mm
31 janvier 21:17 4.1°C 85% 1.1 km/h NNE 1028.5 hPa 0 mm
31 janvier 21:16 4.1°C 85% 0.5 km/h E 1028.5 hPa 0 mm
31 janvier 21:15 4.1°C 85% 0.5 km/h ENE 1028.5 hPa 0 mm
31 janvier 21:14 4.1°C 85% 1.1 km/h ENE 1028.5 hPa 0 mm
31 janvier 21:13 4.1°C 85% 1.1 km/h N 1028.5 hPa 0 mm
31 janvier 21:12 4.1°C 85% 2.1 km/h NNE 1028.5 hPa 0 mm
31 janvier 21:11 4.1°C 85% 1.1 km/h NE 1028.5 hPa 0 mm
31 janvier 21:10 4.1°C 85% 1.6 km/h NE 1028.5 hPa 0 mm
31 janvier 21:09 4.1°C 85% 2.1 km/h NNE 1028.5 hPa 0 mm
31 janvier 21:08 4.1°C 85% 1.6 km/h NE 1028.5 hPa 0 mm
31 janvier 21:07 4.1°C 85% 1.6 km/h N 1028.5 hPa 0 mm
31 janvier 21:06 4.0°C 85% 1.6 km/h N 1028.5 hPa 0 mm
31 janvier 21:05 4.0°C 85% 1.1 km/h N 1028.5 hPa 0 mm
31 janvier 21:04 4.0°C 85% 2.1 km/h N 1028.5 hPa 0 mm
31 janvier 21:03 4.0°C 85% 2.1 km/h N 1028.5 hPa 0 mm
31 janvier 21:02 3.9°C 85% 2.1 km/h NNE 1028.5 hPa 0 mm
31 janvier 21:01 3.9°C 85% 1.6 km/h NE 1028.5 hPa 0 mm
31 janvier 21:00 3.9°C 85% 2.6 km/h NNE 1028.5 hPa 0 mm
31 janvier 20:59 3.8°C 85% 2.1 km/h NNE 1028.5 hPa 0 mm
31 janvier 20:58 3.8°C 86% 2.1 km/h NE 1028.5 hPa 0 mm
31 janvier 20:57 3.8°C 86% 2.1 km/h NNE 1028.5 hPa 0 mm
31 janvier 20:56 3.8°C 86% 1.1 km/h NE 1028.5 hPa 0 mm
31 janvier 20:55 3.8°C 86% 0.0 km/h ENE 1028.4 hPa 0 mm
31 janvier 20:54 3.8°C 86% 0.0 km/h E 1028.4 hPa 0 mm
31 janvier 20:53 3.8°C 86% 0.5 km/h ENE 1028.4 hPa 0 mm
31 janvier 20:52 3.7°C 86% 0.5 km/h N 1028.4 hPa 0 mm
31 janvier 20:51 3.6°C 86% 0.5 km/h NNE 1028.4 hPa 0 mm
31 janvier 20:50 3.9°C 85% 0.0 km/h NE 1028.4 hPa 0 mm
31 janvier 20:49 3.9°C 85% 0.0 km/h NE 1028.4 hPa 0 mm
31 janvier 20:48 3.9°C 85% 0.0 km/h NNE 1028.4 hPa 0 mm
31 janvier 20:47 3.9°C 85% 0.0 km/h NNE 1028.4 hPa 0 mm
31 janvier 20:46 3.9°C 85% 1.1 km/h NE 1028.4 hPa 0 mm
31 janvier 20:45 3.9°C 85% 1.6 km/h NNE 1028.4 hPa 0 mm
31 janvier 20:44 3.9°C 85% 0.0 km/h N 1028.4 hPa 0 mm
31 janvier 20:43 3.9°C 85% 0.0 km/h N 1028.4 hPa 0 mm
31 janvier 20:42 3.9°C 85% 0.5 km/h N 1028.4 hPa 0 mm
31 janvier 20:41 3.9°C 85% 0.5 km/h N 1028.4 hPa 0 mm
31 janvier 20:40 3.9°C 85% 0.5 km/h N 1028.4 hPa 0 mm
31 janvier 20:39 3.9°C 85% 1.1 km/h N 1028.4 hPa 0 mm
31 janvier 20:38 3.9°C 85% 1.1 km/h N 1028.4 hPa 0 mm
31 janvier 20:37 3.9°C 85% 0.5 km/h S 1028.4 hPa 0 mm
31 janvier 20:36 3.9°C 85% 0.0 km/h SO 1028.4 hPa 0 mm
31 janvier 20:35 3.9°C 85% 0.0 km/h E 1028.3 hPa 0 mm
31 janvier 20:34 3.9°C 85% 0.0 km/h E 1028.3 hPa 0 mm
31 janvier 20:33 3.9°C 85% 0.0 km/h ENE 1028.3 hPa 0 mm
31 janvier 20:32 3.9°C 85% 0.0 km/h ENE 1028.3 hPa 0 mm
31 janvier 20:31 3.9°C 85% 0.0 km/h ENE 1028.3 hPa 0 mm
31 janvier 20:30 3.8°C 85% 0.0 km/h ENE 1028.2 hPa 0 mm
31 janvier 20:29 3.8°C 85% 0.0 km/h ENE 1028.2 hPa 0 mm
31 janvier 20:28 3.8°C 85% 0.0 km/h ENE 1028.2 hPa 0 mm
31 janvier 20:27 3.8°C 85% 1.1 km/h ESE 1028.2 hPa 0 mm
31 janvier 20:26 3.8°C 85% 1.1 km/h SE 1028.2 hPa 0 mm
31 janvier 20:25 3.8°C 85% 0.0 km/h ENE 1028.2 hPa 0 mm
31 janvier 20:24 3.8°C 85% 0.0 km/h NE 1028.2 hPa 0 mm
31 janvier 20:23 3.8°C 85% 1.1 km/h NNE 1028.2 hPa 0 mm
31 janvier 20:22 3.8°C 85% 1.1 km/h N 1028.2 hPa 0 mm
31 janvier 20:21 3.8°C 85% 1.1 km/h NNE 1028.2 hPa 0 mm
31 janvier 20:20 3.7°C 85% 1.1 km/h SE 1028.2 hPa 0 mm
31 janvier 20:19 3.7°C 85% 2.6 km/h E 1028.2 hPa 0 mm
31 janvier 20:18 3.7°C 85% 2.1 km/h NNE 1028.2 hPa 0 mm
31 janvier 20:17 3.7°C 85% 0.0 km/h E 1028.2 hPa 0 mm
31 janvier 20:16 3.7°C 85% 0.0 km/h SSO 1028.2 hPa 0 mm
31 janvier 20:15 3.7°C 85% 0.0 km/h ESE 1028.2 hPa 0 mm
31 janvier 20:14 3.7°C 86% 0.0 km/h SE 1028.2 hPa 0 mm
31 janvier 20:13 3.7°C 86% 0.0 km/h SE 1028.2 hPa 0 mm
31 janvier 20:12 3.6°C 86% 0.0 km/h SE 1028.2 hPa 0 mm
31 janvier 20:11 3.6°C 86% 0.0 km/h SE 1028.2 hPa 0 mm
31 janvier 20:10 3.5°C 86% 0.0 km/h SSE 1028.1 hPa 0 mm
31 janvier 20:09 3.5°C 86% 0.0 km/h ENE 1028.1 hPa 0 mm
31 janvier 20:08 3.5°C 86% 0.5 km/h NE 1028.1 hPa 0 mm
31 janvier 20:07 3.5°C 86% 0.0 km/h SE 1028.1 hPa 0 mm
31 janvier 20:06 3.5°C 86% 0.0 km/h S 1028.1 hPa 0 mm
31 janvier 20:05 3.8°C 85% 0.0 km/h SE 1028.1 hPa 0 mm
31 janvier 20:04 3.8°C 85% 0.0 km/h SSE 1028.1 hPa 0 mm
31 janvier 20:03 3.8°C 85% 0.5 km/h SSE 1028.1 hPa 0 mm
31 janvier 20:02 3.8°C 85% 1.1 km/h ESE 1028.1 hPa 0 mm
31 janvier 20:01 3.8°C 85% 0.5 km/h S 1028.1 hPa 0 mm
31 janvier 20:00 3.8°C 85% 1.6 km/h SSO 1028.1 hPa 0 mm
31 janvier 19:59 3.8°C 85% 1.6 km/h SSO 1028.1 hPa 0 mm
31 janvier 19:58 3.8°C 85% 2.1 km/h S 1028.1 hPa 0 mm
31 janvier 19:57 3.8°C 85% 3.2 km/h E 1028.1 hPa 0 mm
31 janvier 19:56 3.8°C 85% 2.1 km/h N 1028.1 hPa 0 mm
31 janvier 19:55 3.8°C 85% 1.6 km/h NNE 1028.1 hPa 0 mm
31 janvier 19:54 3.8°C 85% 0.0 km/h N 1028.1 hPa 0 mm
31 janvier 19:53 3.6°C 85% 0.0 km/h N 1028.1 hPa 0 mm
31 janvier 19:52 3.6°C 85% 0.0 km/h E 1028.1 hPa 0 mm
31 janvier 19:51 3.5°C 85% 0.0 km/h NNE 1028.1 hPa 0 mm
31 janvier 19:50 3.5°C 85% 0.5 km/h N 1028.1 hPa 0 mm
31 janvier 19:49 3.5°C 86% 1.1 km/h E 1028.1 hPa 0 mm
31 janvier 19:48 3.4°C 86% 1.1 km/h ENE 1028.1 hPa 0 mm
31 janvier 19:47 3.4°C 86% 0.0 km/h NE 1028.1 hPa 0 mm
31 janvier 19:46 3.4°C 86% 0.0 km/h NE 1028.1 hPa 0 mm
31 janvier 19:45 3.3°C 86% 0.0 km/h SSE 1028.1 hPa 0 mm
31 janvier 19:44 3.2°C 86% 1.1 km/h SE 1028.1 hPa 0 mm
31 janvier 19:43 3.2°C 86% 1.1 km/h ESE 1028.1 hPa 0 mm
31 janvier 19:42 3.3°C 86% 1.1 km/h SE 1028.1 hPa 0 mm
31 janvier 19:41 3.3°C 85% 1.1 km/h SE 1028.1 hPa 0 mm
31 janvier 19:40 3.4°C 85% 1.1 km/h SE 1028.0 hPa 0 mm
31 janvier 19:39 3.4°C 85% 1.1 km/h S 1028.0 hPa 0 mm
31 janvier 19:38 3.4°C 85% 1.1 km/h SSE 1028.0 hPa 0 mm
31 janvier 19:37 3.4°C 85% 1.1 km/h SE 1028.0 hPa 0 mm
31 janvier 19:36 3.5°C 85% 1.1 km/h E 1028.0 hPa 0 mm
31 janvier 19:35 3.5°C 85% 0.0 km/h SE 1028.0 hPa 0 mm
31 janvier 19:34 3.4°C 85% 0.0 km/h S 1028.0 hPa 0 mm
31 janvier 19:33 3.3°C 85% 0.5 km/h SSE 1028.0 hPa 0 mm
31 janvier 19:32 3.3°C 85% 1.6 km/h ESE 1028.0 hPa 0 mm
31 janvier 19:31 3.3°C 85% 1.1 km/h S 1028.0 hPa 0 mm
31 janvier 19:30 3.2°C 85% 1.1 km/h S 1028.0 hPa 0 mm
31 janvier 19:29 3.2°C 85% 1.1 km/h NNE 1028.0 hPa 0 mm
31 janvier 19:28 3.2°C 85% 2.1 km/h NNE 1028.0 hPa 0 mm
31 janvier 19:27 3.1°C 85% 1.1 km/h SE 1028.0 hPa 0 mm
31 janvier 19:26 3.1°C 85% 1.6 km/h SSO 1028.0 hPa 0 mm
31 janvier 19:25 3.2°C 85% 1.6 km/h SE 1028.0 hPa 0 mm
31 janvier 19:24 3.5°C 84% 1.1 km/h ESE 1028.0 hPa 0 mm
31 janvier 19:23 3.5°C 84% 1.6 km/h ESE 1028.0 hPa 0 mm
31 janvier 19:22 3.5°C 84% 1.6 km/h SSE 1028.0 hPa 0 mm
31 janvier 19:21 3.5°C 84% 2.1 km/h S 1028.0 hPa 0 mm
31 janvier 19:20 3.5°C 84% 2.1 km/h S 1028.0 hPa 0 mm
31 janvier 19:19 3.5°C 84% 2.1 km/h SE 1028.0 hPa 0 mm
31 janvier 19:18 3.5°C 84% 0.5 km/h ENE 1028.0 hPa 0 mm
31 janvier 19:17 3.5°C 84% 0.0 km/h E 1028.0 hPa 0 mm
31 janvier 19:16 3.5°C 84% 0.0 km/h N 1028.0 hPa 0 mm
31 janvier 19:15 3.5°C 84% 0.5 km/h N 1028.0 hPa 0 mm
31 janvier 19:14 3.5°C 84% 1.1 km/h N 1028.0 hPa 0 mm
31 janvier 19:13 3.5°C 84% 2.1 km/h NNE 1028.0 hPa 0 mm
31 janvier 19:12 3.4°C 84% 0.0 km/h E 1028.0 hPa 0 mm
31 janvier 19:11 3.5°C 84% 0.0 km/h SSE 1028.0 hPa 0 mm
31 janvier 19:10 3.5°C 84% 0.0 km/h SE 1027.9 hPa 0 mm
31 janvier 19:09 3.4°C 84% 0.0 km/h SE 1027.9 hPa 0 mm
31 janvier 19:08 3.4°C 84% 0.0 km/h ESE 1027.9 hPa 0 mm
31 janvier 19:07 3.4°C 84% 0.0 km/h E 1027.9 hPa 0 mm
31 janvier 19:06 3.3°C 84% 1.6 km/h E 1027.9 hPa 0 mm
31 janvier 19:05 3.3°C 84% 1.1 km/h SE 1027.9 hPa 0 mm
31 janvier 19:04 3.3°C 84% 0.0 km/h SSE 1027.9 hPa 0 mm
31 janvier 19:03 3.3°C 84% 1.1 km/h OSO 1027.9 hPa 0 mm
31 janvier 19:02 3.2°C 84% 2.1 km/h SE 1027.9 hPa 0 mm
31 janvier 19:01 3.4°C 83% 1.6 km/h E 1027.9 hPa 0 mm
31 janvier 19:00 3.4°C 83% 1.1 km/h N 1027.9 hPa 0 mm
31 janvier 18:59 3.4°C 83% 2.1 km/h ENE 1027.9 hPa 0 mm
31 janvier 18:58 3.4°C 83% 1.1 km/h E 1027.9 hPa 0 mm
31 janvier 18:57 3.5°C 83% 2.1 km/h SE 1027.9 hPa 0 mm
31 janvier 18:56 3.6°C 83% 1.6 km/h S 1027.9 hPa 0 mm
31 janvier 18:55 3.6°C 83% 1.6 km/h SE 1027.9 hPa 0 mm
31 janvier 18:54 3.6°C 83% 1.1 km/h E 1027.9 hPa 0 mm
31 janvier 18:53 3.6°C 83% 1.1 km/h NNE 1027.9 hPa 0 mm
31 janvier 18:52 3.6°C 83% 1.1 km/h NE 1027.9 hPa 0 mm
31 janvier 18:51 3.6°C 83% 1.6 km/h NE 1027.9 hPa 0 mm
31 janvier 18:50 3.7°C 83% 1.6 km/h NNE 1027.9 hPa 0 mm
31 janvier 18:49 3.7°C 83% 2.1 km/h NNE 1027.9 hPa 0 mm
31 janvier 18:48 3.7°C 83% 1.1 km/h ENE 1027.9 hPa 0 mm
31 janvier 18:47 3.6°C 83% 1.6 km/h NE 1027.9 hPa 0 mm
31 janvier 18:46 3.6°C 83% 2.1 km/h NNE 1027.9 hPa 0 mm
31 janvier 18:45 3.6°C 83% 2.6 km/h NNE 1027.9 hPa 0 mm
31 janvier 18:44 3.6°C 83% 2.1 km/h N 1027.9 hPa 0 mm
31 janvier 18:43 3.6°C 83% 2.6 km/h NNE 1027.9 hPa 0 mm
31 janvier 18:42 3.5°C 83% 2.1 km/h NNE 1027.9 hPa 0 mm
31 janvier 18:41 3.5°C 83% 1.6 km/h NE 1027.9 hPa 0 mm
31 janvier 18:40 3.5°C 83% 1.6 km/h NNE 1028.0 hPa 0 mm
31 janvier 18:39 3.4°C 83% 1.6 km/h NNE 1028.0 hPa 0 mm
31 janvier 18:38 3.4°C 82% 1.1 km/h NNE 1028.0 hPa 0 mm
31 janvier 18:37 3.4°C 82% 2.1 km/h NE 1028.0 hPa 0 mm
31 janvier 18:36 3.4°C 82% 2.1 km/h N 1028.0 hPa 0 mm
31 janvier 18:35 3.5°C 82% 2.1 km/h NNE 1028.0 hPa 0 mm
31 janvier 18:34 3.5°C 82% 2.6 km/h N 1028.0 hPa 0 mm
31 janvier 18:33 3.9°C 81% 1.6 km/h NNE 1028.0 hPa 0 mm
31 janvier 18:32 3.9°C 81% 0.5 km/h NNE 1028.0 hPa 0 mm
31 janvier 18:31 3.9°C 81% 1.1 km/h N 1028.0 hPa 0 mm
31 janvier 18:30 3.9°C 81% 1.1 km/h N 1028.0 hPa 0 mm
31 janvier 18:29 3.9°C 81% 1.1 km/h N 1028.0 hPa 0 mm
31 janvier 18:28 3.9°C 81% 1.1 km/h N 1028.0 hPa 0 mm
31 janvier 18:27 3.9°C 81% 1.6 km/h NNE 1028.0 hPa 0 mm
31 janvier 18:26 3.9°C 81% 2.6 km/h N 1028.0 hPa 0 mm
31 janvier 18:25 3.9°C 81% 1.6 km/h NNE 1028.0 hPa 0 mm
31 janvier 18:24 3.9°C 81% 1.6 km/h NE 1028.0 hPa 0 mm
31 janvier 18:23 3.9°C 81% 2.1 km/h NE 1028.0 hPa 0 mm
31 janvier 18:22 3.9°C 81% 2.6 km/h NE 1028.0 hPa 0 mm
31 janvier 18:21 3.9°C 81% 2.1 km/h NE 1028.0 hPa 0 mm
31 janvier 18:20 3.9°C 81% 1.1 km/h NE 1028.0 hPa 0 mm
31 janvier 18:19 3.9°C 81% 1.6 km/h ENE 1028.0 hPa 0 mm
31 janvier 18:18 3.9°C 81% 1.6 km/h NE 1028.0 hPa 0 mm
31 janvier 18:17 3.8°C 81% 1.6 km/h NE 1028.0 hPa 0 mm
31 janvier 18:16 3.8°C 81% 3.2 km/h NNE 1028.0 hPa 0 mm
31 janvier 18:15 3.7°C 81% 2.1 km/h NNE 1028.0 hPa 0 mm
31 janvier 18:14 3.7°C 81% 3.2 km/h N 1028.0 hPa 0 mm
31 janvier 18:13 3.7°C 81% 3.2 km/h NNE 1028.0 hPa 0 mm
31 janvier 18:12 3.7°C 81% 2.1 km/h NNE 1028.0 hPa 0 mm
31 janvier 18:11 3.8°C 81% 2.6 km/h NNE 1028.0 hPa 0 mm
31 janvier 18:10 3.8°C 81% 3.7 km/h NNE 1027.8 hPa 0 mm
31 janvier 18:09 3.8°C 81% 1.6 km/h NE 1027.8 hPa 0 mm
31 janvier 18:08 3.8°C 81% 2.1 km/h NNE 1027.8 hPa 0 mm
31 janvier 18:07 3.9°C 81% 1.1 km/h ENE 1027.8 hPa 0 mm
31 janvier 18:06 4.0°C 80% 0.0 km/h E 1027.8 hPa 0 mm
31 janvier 18:05 4.1°C 80% 1.1 km/h NE 1027.7 hPa 0 mm
31 janvier 18:04 4.3°C 80% 1.6 km/h NNE 1027.7 hPa 0 mm
31 janvier 18:03 4.3°C 80% 1.6 km/h NE 1027.7 hPa 0 mm
31 janvier 18:02 4.4°C 80% 1.1 km/h NE 1027.7 hPa 0 mm
31 janvier 18:01 4.4°C 80% 1.6 km/h N 1027.7 hPa 0 mm
31 janvier 18:00 4.4°C 80% 2.1 km/h NNE 1027.7 hPa 0 mm
31 janvier 17:59 4.4°C 80% 2.6 km/h NNE 1027.7 hPa 0 mm
31 janvier 17:58 4.3°C 80% 3.7 km/h NNE 1027.7 hPa 0 mm
31 janvier 17:57 4.3°C 80% 2.1 km/h NNE 1027.7 hPa 0 mm
31 janvier 17:56 4.0°C 80% 5.8 km/h NNE 1027.7 hPa 0 mm
31 janvier 17:55 4.0°C 80% 3.7 km/h E 1027.6 hPa 0 mm
31 janvier 17:54 4.0°C 80% 3.7 km/h NE 1027.6 hPa 0 mm
31 janvier 17:53 4.0°C 80% 2.6 km/h NE 1027.6 hPa 0 mm
31 janvier 17:52 4.0°C 80% 2.6 km/h NNE 1027.6 hPa 0 mm
31 janvier 17:51 4.0°C 80% 3.2 km/h NNE 1027.6 hPa 0 mm
31 janvier 17:50 4.0°C 80% 2.6 km/h NE 1027.6 hPa 0 mm
31 janvier 17:49 4.0°C 80% 2.6 km/h NE 1027.6 hPa 0 mm
31 janvier 17:48 4.0°C 80% 2.6 km/h NE 1027.6 hPa 0 mm
31 janvier 17:47 4.3°C 79% 1.6 km/h NE 1027.6 hPa 0 mm
31 janvier 17:46 4.3°C 79% 2.6 km/h NNE 1027.6 hPa 0 mm
31 janvier 17:45 4.3°C 79% 2.1 km/h NNE 1027.5 hPa 0 mm
31 janvier 17:44 4.4°C 79% 2.1 km/h NNE 1027.5 hPa 0 mm
31 janvier 17:43 4.4°C 79% 2.1 km/h NNE 1027.5 hPa 0 mm
31 janvier 17:42 4.5°C 79% 1.6 km/h NNE 1027.5 hPa 0 mm
31 janvier 17:41 4.6°C 78% 1.6 km/h NE 1027.5 hPa 0 mm
31 janvier 17:40 4.6°C 78% 1.6 km/h NNE 1027.4 hPa 0 mm
31 janvier 17:39 4.7°C 78% 2.1 km/h NNE 1027.4 hPa 0 mm
31 janvier 17:38 4.7°C 78% 2.6 km/h NE 1027.4 hPa 0 mm
31 janvier 17:37 4.8°C 78% 2.1 km/h NNE 1027.4 hPa 0 mm
31 janvier 17:36 4.9°C 78% 2.1 km/h NNE 1027.4 hPa 0 mm
31 janvier 17:35 4.9°C 78% 2.1 km/h NNE 1027.4 hPa 0 mm
31 janvier 17:34 4.9°C 78% 2.6 km/h NNE 1027.4 hPa 0 mm
31 janvier 17:33 5.0°C 77% 3.2 km/h NNE 1027.4 hPa 0 mm
31 janvier 17:32 5.0°C 77% 3.2 km/h NNE 1027.4 hPa 0 mm
31 janvier 17:31 5.1°C 77% 3.2 km/h N 1027.4 hPa 0 mm
31 janvier 17:30 5.1°C 77% 2.1 km/h NNE 1027.3 hPa 0 mm
31 janvier 17:29 5.1°C 77% 2.6 km/h NNE 1027.3 hPa 0 mm
31 janvier 17:28 5.1°C 77% 2.1 km/h NNE 1027.3 hPa 0 mm
31 janvier 17:27 5.2°C 77% 1.6 km/h NE 1027.3 hPa 0 mm
31 janvier 17:26 5.2°C 77% 1.6 km/h NE 1027.3 hPa 0 mm
31 janvier 17:25 5.3°C 77% 3.2 km/h NE 1027.2 hPa 0 mm
31 janvier 17:24 5.4°C 77% 2.1 km/h NE 1027.2 hPa 0 mm
31 janvier 17:23 5.4°C 77% 2.6 km/h NE 1027.2 hPa 0 mm
31 janvier 17:22 5.4°C 77% 2.6 km/h NNE 1027.2 hPa 0 mm
31 janvier 17:21 5.4°C 77% 2.6 km/h NE 1027.2 hPa 0 mm
31 janvier 17:20 5.4°C 77% 2.6 km/h NE 1027.1 hPa 0 mm
31 janvier 17:19 5.4°C 77% 3.2 km/h NNE 1027.1 hPa 0 mm
31 janvier 17:18 5.4°C 77% 2.6 km/h NNE 1027.1 hPa 0 mm
31 janvier 17:17 5.4°C 77% 2.6 km/h NE 1027.1 hPa 0 mm
31 janvier 17:16 5.4°C 77% 4.8 km/h NNE 1027.1 hPa 0 mm
31 janvier 17:15 5.4°C 77% 2.6 km/h NNE 1027.1 hPa 0 mm
31 janvier 17:14 5.4°C 77% 4.2 km/h NNE 1027.1 hPa 0 mm
31 janvier 17:13 5.4°C 77% 3.2 km/h NNE 1027.1 hPa 0 mm
31 janvier 17:12 5.4°C 77% 2.6 km/h NE 1027.1 hPa 0 mm
31 janvier 17:11 5.4°C 77% 4.2 km/h NE 1027.1 hPa 0 mm
31 janvier 17:10 5.4°C 77% 6.3 km/h NNE 1027.0 hPa 0 mm
31 janvier 17:09 5.4°C 77% 4.2 km/h NNE 1027.0 hPa 0 mm
31 janvier 17:08 5.4°C 76% 3.2 km/h NNE 1027.0 hPa 0 mm
31 janvier 17:07 5.4°C 76% 3.2 km/h NNE 1027.0 hPa 0 mm
31 janvier 17:06 5.4°C 76% 3.7 km/h NNE 1027.0 hPa 0 mm
31 janvier 17:05 5.4°C 76% 4.2 km/h NNE 1027.0 hPa 0 mm
31 janvier 17:04 5.6°C 76% 4.8 km/h NNE 1027.0 hPa 0 mm
31 janvier 17:03 5.6°C 76% 4.8 km/h N 1027.0 hPa 0 mm
31 janvier 17:02 5.6°C 76% 4.2 km/h NNE 1027.0 hPa 0 mm
31 janvier 17:01 5.6°C 76% 5.3 km/h ENE 1027.0 hPa 0 mm
31 janvier 17:00 5.6°C 76% 5.3 km/h NNE 1026.9 hPa 0 mm
31 janvier 16:59 5.7°C 76% 10.0 km/h NE 1026.9 hPa 0 mm
31 janvier 16:58 5.7°C 76% 4.8 km/h NNE 1026.9 hPa 0 mm
31 janvier 16:57 5.7°C 76% 2.6 km/h NE 1026.9 hPa 0 mm
31 janvier 16:56 5.9°C 75% 5.8 km/h NNE 1026.9 hPa 0 mm
31 janvier 16:55 5.9°C 75% 3.7 km/h NE 1026.9 hPa 0 mm
31 janvier 16:54 5.9°C 75% 4.8 km/h N 1026.9 hPa 0 mm
31 janvier 16:53 5.9°C 75% 6.3 km/h N 1026.9 hPa 0 mm
31 janvier 16:52 5.9°C 75% 7.9 km/h NNE 1026.9 hPa 0 mm
31 janvier 16:51 5.9°C 75% 5.3 km/h ENE 1026.9 hPa 0 mm
31 janvier 16:50 5.9°C 75% 4.2 km/h NNE 1026.9 hPa 0 mm
31 janvier 16:49 6.1°C 74% 7.4 km/h NE 1026.9 hPa 0 mm
31 janvier 16:48 6.1°C 74% 7.9 km/h NNE 1026.9 hPa 0 mm
31 janvier 16:47 6.1°C 74% 7.9 km/h NE 1026.9 hPa 0 mm
31 janvier 16:46 6.1°C 74% 7.9 km/h NE 1026.9 hPa 0 mm
31 janvier 16:45 6.1°C 74% 11.6 km/h NE 1026.9 hPa 0 mm
31 janvier 16:44 6.2°C 74% 5.8 km/h NE 1026.9 hPa 0 mm
31 janvier 16:43 6.2°C 74% 5.3 km/h NE 1026.9 hPa 0 mm
31 janvier 16:42 6.3°C 74% 7.4 km/h NNE 1026.9 hPa 0 mm
31 janvier 16:41 6.3°C 73% 6.9 km/h NE 1026.9 hPa 0 mm
31 janvier 16:40 6.3°C 73% 10.6 km/h N 1026.8 hPa 0 mm
31 janvier 16:39 6.4°C 73% 11.6 km/h NNE 1026.8 hPa 0 mm
31 janvier 16:38 6.4°C 73% 11.1 km/h NE 1026.8 hPa 0 mm
31 janvier 16:37 6.5°C 73% 6.9 km/h NE 1026.8 hPa 0 mm
31 janvier 16:36 6.5°C 73% 12.1 km/h ENE 1026.8 hPa 0 mm
31 janvier 16:35 6.4°C 73% 10.6 km/h NE 1026.8 hPa 0 mm
31 janvier 16:34 6.4°C 73% 11.6 km/h NE 1026.8 hPa 0 mm
31 janvier 16:33 6.4°C 73% 9.0 km/h N 1026.8 hPa 0 mm
31 janvier 16:32 6.4°C 73% 7.9 km/h E 1026.8 hPa 0 mm
31 janvier 16:31 6.4°C 73% 7.4 km/h NNE 1026.8 hPa 0 mm
31 janvier 16:30 7.0°C 72% 9.5 km/h NE 1026.8 hPa 0 mm
31 janvier 16:29 7.0°C 72% 14.2 km/h NNE 1026.8 hPa 0 mm
31 janvier 16:28 7.0°C 72% 10.6 km/h NE 1026.8 hPa 0 mm
31 janvier 16:27 7.0°C 72% 9.5 km/h NNE 1026.8 hPa 0 mm
31 janvier 16:26 7.0°C 72% 9.0 km/h NNE 1026.8 hPa 0 mm
31 janvier 16:25 7.0°C 72% 12.1 km/h NNE 1026.8 hPa 0 mm
31 janvier 16:24 7.0°C 72% 11.1 km/h NE 1026.8 hPa 0 mm
31 janvier 16:23 7.0°C 72% 11.1 km/h NNE 1026.8 hPa 0 mm
31 janvier 16:22 7.0°C 72% 7.9 km/h NE 1026.8 hPa 0 mm
31 janvier 16:22 7.0°C 72% 7.4 km/h ENE 1026.8 hPa 0 mm
31 janvier 16:20 7.0°C 72% 12.1 km/h N 1026.8 hPa 0 mm
31 janvier 16:17 7.1°C 72% 12.7 km/h NNE 1026.8 hPa 0 mm
31 janvier 16:16 7.1°C 72% 8.4 km/h NNE 1026.8 hPa 0 mm
31 janvier 16:15 7.1°C 72% 6.9 km/h NE 1026.8 hPa 0 mm
31 janvier 16:14 7.1°C 72% 8.4 km/h ENE 1026.8 hPa 0 mm
31 janvier 16:13 7.0°C 72% 5.3 km/h NNE 1026.8 hPa 0 mm
31 janvier 16:12 7.0°C 71% 11.1 km/h NE 1026.8 hPa 0 mm
31 janvier 16:11 7.1°C 72% 12.1 km/h NNE 1026.8 hPa 0 mm
31 janvier 16:10 7.1°C 72% 14.8 km/h NE 1026.8 hPa 0 mm
31 janvier 16:09 7.1°C 72% 8.4 km/h NNE 1026.8 hPa 0 mm
31 janvier 16:08 7.1°C 72% 11.1 km/h NNE 1026.8 hPa 0 mm
31 janvier 16:07 7.0°C 72% 10.6 km/h NNE 1026.8 hPa 0 mm
31 janvier 16:06 7.0°C 72% 5.3 km/h NE 1026.8 hPa 0 mm
31 janvier 16:05 7.0°C 72% 6.9 km/h NNE 1026.8 hPa 0 mm
31 janvier 16:04 6.9°C 72% 9.0 km/h NE 1026.8 hPa 0 mm
31 janvier 16:03 6.8°C 72% 8.4 km/h NNE 1026.8 hPa 0 mm
31 janvier 16:02 6.7°C 73% 7.9 km/h NNE 1026.8 hPa 0 mm
31 janvier 16:01 6.7°C 73% 11.1 km/h NE 1026.8 hPa 0 mm
31 janvier 16:00 6.5°C 73% 9.5 km/h NNE 1026.7 hPa 0 mm
31 janvier 15:59 6.5°C 73% 6.3 km/h NE 1026.7 hPa 0 mm
31 janvier 15:58 6.5°C 73% 5.3 km/h NNE 1026.7 hPa 0 mm
31 janvier 15:57 6.5°C 73% 7.4 km/h NE 1026.7 hPa 0 mm
31 janvier 15:56 6.5°C 73% 7.4 km/h NE 1026.7 hPa 0 mm
31 janvier 15:55 6.5°C 73% 7.9 km/h NNE 1026.7 hPa 0 mm
31 janvier 15:54 6.5°C 73% 7.9 km/h NNE 1026.7 hPa 0 mm
31 janvier 15:53 6.5°C 73% 8.4 km/h NE 1026.7 hPa 0 mm
31 janvier 15:52 6.3°C 73% 7.4 km/h NNE 1026.7 hPa 0 mm
31 janvier 15:51 6.3°C 73% 5.3 km/h E 1026.7 hPa 0 mm
31 janvier 15:50 6.3°C 73% 7.9 km/h NE 1026.7 hPa 0 mm
31 janvier 15:49 6.2°C 73% 7.4 km/h NE 1026.7 hPa 0 mm
31 janvier 15:48 6.2°C 73% 10.6 km/h NNE 1026.7 hPa 0 mm
31 janvier 15:47 6.2°C 73% 11.1 km/h NE 1026.7 hPa 0 mm
31 janvier 15:46 6.2°C 73% 9.0 km/h NNE 1026.7 hPa 0 mm
31 janvier 15:45 6.4°C 72% 9.5 km/h NNE 1026.7 hPa 0 mm
31 janvier 15:44 6.4°C 72% 11.6 km/h NE 1026.7 hPa 0 mm
31 janvier 15:43 6.5°C 72% 13.7 km/h NNE 1026.7 hPa 0 mm
31 janvier 15:42 6.7°C 72% 10.0 km/h NE 1026.7 hPa 0 mm
31 janvier 15:41 6.8°C 71% 9.0 km/h ENE 1026.7 hPa 0 mm
31 janvier 15:40 7.0°C 72% 14.8 km/h NNE 1026.7 hPa 0 mm
31 janvier 15:39 7.0°C 72% 12.1 km/h NNE 1026.7 hPa 0 mm
31 janvier 15:38 7.0°C 72% 13.7 km/h NNE 1026.7 hPa 0 mm
31 janvier 15:37 7.0°C 72% 14.8 km/h NNE 1026.7 hPa 0 mm
31 janvier 15:36 7.0°C 72% 13.2 km/h ENE 1026.7 hPa 0 mm
31 janvier 15:35 7.0°C 72% 14.8 km/h NNE 1026.7 hPa 0 mm
31 janvier 15:34 7.0°C 72% 15.8 km/h NNE 1026.7 hPa 0 mm
31 janvier 15:33 7.0°C 72% 13.7 km/h NE 1026.7 hPa 0 mm
31 janvier 15:32 7.1°C 72% 14.8 km/h ENE 1026.7 hPa 0 mm
31 janvier 15:31 6.9°C 73% 11.1 km/h ENE 1026.7 hPa 0 mm
31 janvier 15:30 6.9°C 73% 10.6 km/h NNE 1026.7 hPa 0 mm
31 janvier 15:29 6.9°C 73% 12.7 km/h NE 1026.7 hPa 0 mm
31 janvier 15:28 6.8°C 73% 9.5 km/h NNE 1026.7 hPa 0 mm
31 janvier 15:27 6.6°C 73% 7.4 km/h ENE 1026.7 hPa 0 mm
31 janvier 15:26 6.6°C 73% 11.6 km/h NNE 1026.7 hPa 0 mm
31 janvier 15:25 6.5°C 73% 10.0 km/h NNE 1026.7 hPa 0 mm
31 janvier 15:24 6.7°C 72% 16.4 km/h ENE 1026.7 hPa 0 mm
31 janvier 15:23 6.7°C 72% 16.4 km/h ENE 1026.7 hPa 0 mm
31 janvier 15:22 7.0°C 72% 14.2 km/h NNE 1026.7 hPa 0 mm
31 janvier 15:21 7.0°C 72% 12.1 km/h NNE 1026.7 hPa 0 mm
31 janvier 15:20 7.1°C 72% 14.2 km/h NNE 1026.7 hPa 0 mm
31 janvier 15:19 7.2°C 72% 13.2 km/h NNE 1026.7 hPa 0 mm
31 janvier 15:18 7.2°C 73% 14.2 km/h NNE 1026.7 hPa 0 mm
31 janvier 15:17 7.2°C 73% 8.4 km/h NNE 1026.7 hPa 0 mm
31 janvier 15:16 7.0°C 74% 7.9 km/h NNE 1026.7 hPa 0 mm
31 janvier 15:15 7.0°C 74% 6.3 km/h NNE 1026.7 hPa 0 mm
31 janvier 15:14 6.6°C 74% 5.8 km/h NE 1026.7 hPa 0 mm
31 janvier 15:13 6.6°C 74% 7.4 km/h NNE 1026.7 hPa 0 mm
31 janvier 15:12 6.1°C 75% 8.4 km/h NNE 1026.7 hPa 0 mm
31 janvier 15:11 6.1°C 75% 11.6 km/h NNE 1026.7 hPa 0 mm
31 janvier 15:10 6.1°C 75% 10.0 km/h NNE 1026.7 hPa 0 mm
31 janvier 15:09 6.1°C 75% 10.6 km/h NNE 1026.7 hPa 0 mm
31 janvier 15:08 6.2°C 74% 15.8 km/h NNE 1026.7 hPa 0 mm
31 janvier 15:07 6.2°C 74% 10.0 km/h NE 1026.7 hPa 0 mm
31 janvier 15:06 6.4°C 74% 12.7 km/h NE 1026.7 hPa 0 mm
31 janvier 15:05 6.4°C 74% 13.7 km/h NNE 1026.7 hPa 0 mm
31 janvier 15:04 6.4°C 74% 18.5 km/h NNE 1026.7 hPa 0 mm
31 janvier 15:03 6.7°C 73% 15.3 km/h ENE 1026.7 hPa 0 mm
31 janvier 15:02 6.7°C 73% 12.7 km/h NE 1026.7 hPa 0 mm
31 janvier 15:01 6.7°C 73% 13.7 km/h NNE 1026.7 hPa 0 mm
31 janvier 15:00 6.7°C 73% 15.3 km/h NNE 1026.7 hPa 0 mm
31 janvier 14:59 6.9°C 73% 14.2 km/h NNE 1026.7 hPa 0 mm
31 janvier 14:58 6.9°C 73% 10.6 km/h NNE 1026.7 hPa 0 mm
31 janvier 14:57 6.9°C 73% 9.5 km/h NNE 1026.7 hPa 0 mm
31 janvier 14:55 7.1°C 73% 13.7 km/h NNE 1026.7 hPa 0 mm
31 janvier 14:54 7.2°C 73% 12.7 km/h NE 1026.7 hPa 0 mm
31 janvier 14:53 7.0°C 73% 14.2 km/h NNE 1026.7 hPa 0 mm
31 janvier 14:52 7.3°C 72% 13.7 km/h NNE 1026.7 hPa 0 mm
31 janvier 14:51 7.3°C 72% 9.0 km/h NNE 1026.7 hPa 0 mm
31 janvier 14:50 7.3°C 72% 5.8 km/h NNE 1026.8 hPa 0 mm
31 janvier 14:49 7.3°C